Time,TemperatureF,DewpointF,PressureIn,WindDirection,WindDirectionDegrees,WindSpeedMPH,WindSpeedGustMPH,Humidity,HourlyPrecipIn,Conditions,Clouds,dailyrainin,SoftwareType,DateUTC
2013-03-04 00:00:00,49.5,39.0,30.16,NW,321,6.8,6.8,67,0.00,,,0.01,TxWx,2013-03-04 05:00:00,
2013-03-04 00:01:00,49.5,39.0,30.16,WNW,298,8.0,8.0,67,0.00,,,0.01,TxWx,2013-03-04 05:01:00,
2013-03-04 00:02:00,49.4,38.0,30.16,West,276,7.4,9.3,67,0.00,,,0.01,TxWx,2013-03-04 05:02:00,
2013-03-04 00:05:00,49.7,40.0,30.16,NW,321,5.0,5.0,68,0.00,,,0.00,TxWx,2013-03-04 05:05:00,
2013-03-04 00:06:00,49.4,38.0,30.16,WNW,298,9.3,9.3,67,0.00,,,0.00,TxWx,2013-03-04 05:06:00,
2013-03-04 00:10:00,49.3,38.0,30.16,NNW,343,9.9,9.9,66,0.00,,,0.00,TxWx,2013-03-04 05:10:00,
2013-03-04 00:11:00,49.4,38.0,30.17,NW,321,6.2,6.2,67,0.00,,,0.00,TxWx,2013-03-04 05:11:00,
2013-03-04 00:12:00,49.5,40.0,30.16,NW,321,8.0,8.7,68,0.00,,,0.00,TxWx,2013-03-04 05:12:00,
2013-03-04 00:14:00,49.4,38.0,30.17,West,276,6.2,6.2,67,0.00,,,0.00,TxWx,2013-03-04 05:14:00,
2013-03-04 00:16:00,49.4,39.0,30.16,NW,321,5.6,5.6,67,0.00,,,0.00,TxWx,2013-03-04 05:16:00,
2013-03-04 00:17:00,49.4,39.0,30.16,NW,321,5.0,5.6,68,0.00,,,0.00,TxWx,2013-03-04 05:17:00,
2013-03-04 00:19:00,49.4,39.0,30.16,NW,321,11.8,13.0,69,0.00,,,0.00,TxWx,2013-03-04 05:19:00,
2013-03-04 00:22:00,49.2,39.0,30.16,NW,321,9.9,10.5,68,0.00,,,0.00,TxWx,2013-03-04 05:22:00,
2013-03-04 00:23:00,49.1,39.0,30.16,WNW,298,6.8,10.5,67,0.00,,,0.00,TxWx,2013-03-04 05:23:00,
2013-03-04 00:25:00,49.1,39.0,30.16,NNW,343,8.0,8.0,68,0.00,,,0.00,TxWx,2013-03-04 05:25:00,
2013-03-04 00:28:00,48.9,38.0,30.16,NW,321,8.0,8.0,67,0.00,,,0.00,TxWx,2013-03-04 05:28:00,
2013-03-04 00:29:00,48.8,38.0,30.16,WNW,298,11.1,13.0,67,0.00,,,0.00,TxWx,2013-03-04 05:29:00,
2013-03-04 00:33:00,49.0,39.0,30.16,NW,321,11.1,11.1,68,0.00,,,0.00,TxWx,2013-03-04 05:33:00,
2013-03-04 00:34:00,48.8,38.0,30.16,NNW,343,8.7,8.7,66,0.00,,,0.00,TxWx,2013-03-04 05:34:00,
2013-03-04 00:35:00,48.6,38.0,30.16,NNW,343,16.7,16.7,65,0.00,,,0.00,TxWx,2013-03-04 05:35:00,
2013-03-04 00:36:00,49.0,39.0,30.16,NNW,343,7.4,8.0,67,0.00,,,0.00,TxWx,2013-03-04 05:36:00,
2013-03-04 00:39:00,48.5,38.0,30.16,NW,321,13.6,13.6,65,0.00,,,0.00,TxWx,2013-03-04 05:39:00,
2013-03-04 00:40:00,48.7,37.0,30.16,West,276,11.1,11.8,64,0.00,,,0.00,TxWx,2013-03-04 05:40:00,
2013-03-04 00:42:00,48.6,38.0,30.16,WNW,298,9.9,11.1,65,0.00,,,0.00,TxWx,2013-03-04 05:42:00,
2013-03-04 00:45:00,48.7,38.0,30.15,NW,321,8.0,10.5,67,0.00,,,0.00,TxWx,2013-03-04 05:45:00,
2013-03-04 00:47:00,48.4,36.0,30.15,NW,321,12.4,14.2,64,0.00,,,0.00,TxWx,2013-03-04 05:47:00,
2013-03-04 00:49:00,48.6,38.0,30.15,NNW,343,7.4,9.3,67,0.00,,,0.00,TxWx,2013-03-04 05:49:00,
2013-03-04 00:50:00,48.6,38.0,30.15,NNW,343,6.8,11.1,67,0.00,,,0.00,TxWx,2013-03-04 05:50:00,
2013-03-04 00:51:00,48.5,37.0,30.15,West,276,7.4,7.4,66,0.00,,,0.00,TxWx,2013-03-04 05:51:00,
2013-03-04 00:53:00,48.3,37.0,30.15,WNW,298,16.1,17.9,66,0.00,,,0.00,TxWx,2013-03-04 05:53:00,
2013-03-04 00:55:00,48.0,37.0,30.15,NW,321,8.0,8.7,65,0.00,,,0.00,TxWx,2013-03-04 05:55:00,
2013-03-04 00:56:00,48.2,37.0,30.15,NNW,343,13.6,14.2,66,0.00,,,0.00,TxWx,2013-03-04 05:56:00,
2013-03-04 00:59:00,47.9,37.0,30.15,WNW,298,9.9,12.4,65,0.00,,,0.00,TxWx,2013-03-04 05:59:00,
2013-03-04 01:01:00,47.9,37.0,30.15,NW,321,11.1,13.0,65,0.00,,,0.00,TxWx,2013-03-04 06:01:00,
2013-03-04 01:04:00,48.1,38.0,30.15,NNW,343,11.1,11.1,68,0.00,,,0.00,TxWx,2013-03-04 06:04:00,
2013-03-04 01:05:00,47.6,36.0,30.15,NW,321,11.8,13.6,64,0.00,,,0.00,TxWx,2013-03-04 06:05:00,
2013-03-04 01:06:00,47.6,37.0,30.15,NW,321,10.5,14.2,65,0.00,,,0.00,TxWx,2013-03-04 06:06:00,
2013-03-04 01:10:00,47.6,37.0,30.15,WNW,298,15.5,19.2,66,0.00,,,0.00,TxWx,2013-03-04 06:10:00,
2013-03-04 01:13:00,47.6,37.0,30.15,NW,321,9.9,11.8,66,0.00,,,0.00,TxWx,2013-03-04 06:13:00,
2013-03-04 01:14:00,47.3,36.0,30.15,West,276,13.0,13.0,65,0.00,,,0.00,TxWx,2013-03-04 06:14:00,
2013-03-04 01:16:00,47.5,36.0,30.16,NNW,343,15.5,15.5,66,0.00,,,0.00,TxWx,2013-03-04 06:16:00,
2013-03-04 01:17:00,47.0,35.0,30.16,NW,321,11.8,11.8,63,0.00,,,0.00,TxWx,2013-03-04 06:17:00,
2013-03-04 01:19:00,47.2,36.0,30.15,NNW,343,8.7,8.7,65,0.00,,,0.00,TxWx,2013-03-04 06:19:00,
2013-03-04 01:20:00,47.1,35.0,30.16,NW,321,7.4,8.7,64,0.00,,,0.00,TxWx,2013-03-04 06:20:00,
2013-03-04 01:21:00,47.0,35.0,30.16,WNW,298,12.4,14.2,64,0.00,,,0.00,TxWx,2013-03-04 06:21:00,
2013-03-04 01:23:00,46.9,35.0,30.15,NW,321,9.9,10.5,63,0.00,,,0.00,TxWx,2013-03-04 06:23:00,
2013-03-04 01:25:00,46.9,35.0,30.15,West,276,11.8,13.6,63,0.00,,,0.00,TxWx,2013-03-04 06:25:00,
2013-03-04 01:27:00,47.0,35.0,30.16,NW,321,11.8,14.2,64,0.00,,,0.00,TxWx,2013-03-04 06:27:00,
2013-03-04 01:28:00,47.0,35.0,30.15,NW,321,9.3,9.9,64,0.00,,,0.00,TxWx,2013-03-04 06:28:00,
2013-03-04 01:30:00,46.9,35.0,30.15,NNW,343,11.1,13.0,64,0.00,,,0.00,TxWx,2013-03-04 06:30:00,
2013-03-04 01:32:00,46.8,35.0,30.16,NW,321,10.5,12.4,64,0.00,,,0.00,TxWx,2013-03-04 06:32:00,
2013-03-04 01:34:00,46.8,35.0,30.16,WNW,298,9.9,12.4,63,0.00,,,0.00,TxWx,2013-03-04 06:34:00,
2013-03-04 01:37:00,46.6,35.0,30.16,NW,321,10.5,11.1,63,0.00,,,0.00,TxWx,2013-03-04 06:37:00,
2013-03-04 01:38:00,46.8,35.0,30.16,NW,321,9.9,12.4,64,0.00,,,0.00,TxWx,2013-03-04 06:38:00,
2013-03-04 01:41:00,46.7,35.0,30.16,WNW,298,10.5,10.5,63,0.00,,,0.00,TxWx,2013-03-04 06:41:00,
2013-03-04 01:43:00,46.4,34.0,30.16,WNW,298,6.2,6.2,62,0.00,,,0.00,TxWx,2013-03-04 06:43:00,
2013-03-04 01:47:00,46.5,34.0,30.16,WNW,298,9.3,12.4,64,0.00,,,0.00,TxWx,2013-03-04 06:47:00,
2013-03-04 01:50:00,46.7,36.0,30.16,North,6,8.7,8.7,66,0.00,,,0.00,TxWx,2013-03-04 06:50:00,
2013-03-04 01:52:00,46.4,35.0,30.16,NNW,343,10.5,11.1,65,0.00,,,0.00,TxWx,2013-03-04 06:52:00,
2013-03-04 01:53:00,46.4,35.0,30.16,NW,321,11.1,13.0,65,0.00,,,0.00,TxWx,2013-03-04 06:53:00,
2013-03-04 01:55:00,46.4,34.0,30.16,NW,321,14.2,14.2,64,0.00,,,0.00,TxWx,2013-03-04 06:55:00,
2013-03-04 01:58:00,46.0,34.0,30.16,NNW,343,8.0,9.9,63,0.00,,,0.00,TxWx,2013-03-04 06:58:00,
2013-03-04 02:01:00,46.4,35.0,30.16,NW,321,16.1,16.1,66,0.00,,,0.00,TxWx,2013-03-04 07:01:00,
2013-03-04 02:02:00,46.1,35.0,30.16,West,276,12.4,12.4,65,0.00,,,0.00,TxWx,2013-03-04 07:02:00,
2013-03-04 02:03:00,46.1,35.0,30.16,NW,321,6.8,6.8,65,0.00,,,0.00,TxWx,2013-03-04 07:03:00,
2013-03-04 02:07:00,45.8,34.0,30.16,NW,321,10.5,11.8,64,0.00,,,0.00,TxWx,2013-03-04 07:07:00,
2013-03-04 02:08:00,46.0,35.0,30.16,NW,321,10.5,11.1,65,0.00,,,0.00,TxWx,2013-03-04 07:08:00,
2013-03-04 02:09:00,45.9,35.0,30.16,NNW,343,9.3,9.3,65,0.00,,,0.00,TxWx,2013-03-04 07:09:00,
2013-03-04 02:10:00,46.0,35.0,30.16,NW,321,7.4,10.5,66,0.00,,,0.00,TxWx,2013-03-04 07:10:00,
2013-03-04 02:12:00,45.9,35.0,30.16,WNW,298,8.0,8.0,65,0.00,,,0.00,TxWx,2013-03-04 07:12:00,
2013-03-04 02:14:00,46.1,35.0,30.16,North,6,9.3,9.3,67,0.00,,,0.00,TxWx,2013-03-04 07:14:00,
2013-03-04 02:16:00,45.9,35.0,30.15,NW,321,7.4,10.5,65,0.00,,,0.00,TxWx,2013-03-04 07:16:00,
2013-03-04 02:17:00,45.7,35.0,30.16,NNW,343,9.9,11.8,65,0.00,,,0.00,TxWx,2013-03-04 07:17:00,
2013-03-04 02:18:00,45.6,34.0,30.16,NNW,343,10.5,12.4,64,0.00,,,0.00,TxWx,2013-03-04 07:18:00,
2013-03-04 02:21:00,45.8,35.0,30.16,WNW,298,5.0,5.0,66,0.00,,,0.00,TxWx,2013-03-04 07:21:00,
2013-03-04 02:22:00,45.9,35.0,30.16,NW,321,6.2,6.2,67,0.00,,,0.00,TxWx,2013-03-04 07:22:00,
2013-03-04 02:23:00,45.8,35.0,30.16,NW,321,11.8,11.8,65,0.00,,,0.00,TxWx,2013-03-04 07:23:00,
2013-03-04 02:24:00,45.8,35.0,30.15,NW,321,6.2,6.2,67,0.00,,,0.00,TxWx,2013-03-04 07:24:00,
2013-03-04 02:27:00,45.8,35.0,30.15,NW,321,5.6,6.2,66,0.00,,,0.00,TxWx,2013-03-04 07:27:00,
2013-03-04 02:30:00,45.6,35.0,30.15,NW,321,10.5,10.5,66,0.00,,,0.00,TxWx,2013-03-04 07:30:00,
2013-03-04 02:32:00,45.6,35.0,30.15,NNE,28,6.2,6.2,65,0.00,,,0.00,TxWx,2013-03-04 07:32:00,
2013-03-04 02:34:00,45.5,34.0,30.15,WNW,298,13.6,15.5,66,0.00,,,0.00,TxWx,2013-03-04 07:34:00,
2013-03-04 02:36:00,45.6,35.0,30.15,NNW,343,5.0,7.4,67,0.00,,,0.00,TxWx,2013-03-04 07:36:00,
2013-03-04 02:38:00,45.6,35.0,30.15,NNW,343,7.4,7.4,66,0.00,,,0.00,TxWx,2013-03-04 07:38:00,
2013-03-04 02:39:00,45.7,36.0,30.15,NW,321,9.3,9.3,67,0.00,,,0.00,TxWx,2013-03-04 07:39:00,
2013-03-04 02:41:00,45.4,34.0,30.16,NNW,343,6.2,7.4,65,0.00,,,0.00,TxWx,2013-03-04 07:41:00,
2013-03-04 02:43:00,45.6,35.0,30.15,WNW,298,5.0,6.2,65,0.00,,,0.00,TxWx,2013-03-04 07:43:00,
2013-03-04 02:45:00,45.5,34.0,30.15,NW,321,8.7,8.7,65,0.00,,,0.00,TxWx,2013-03-04 07:45:00,
2013-03-04 02:47:00,45.4,34.0,30.15,North,6,7.4,9.3,64,0.00,,,0.00,TxWx,2013-03-04 07:47:00,
2013-03-04 02:48:00,45.5,35.0,30.15,NNW,343,8.7,10.5,65,0.00,,,0.00,TxWx,2013-03-04 07:48:00,
2013-03-04 02:52:00,45.6,35.0,30.15,NW,321,8.0,8.0,66,0.00,,,0.00,TxWx,2013-03-04 07:52:00,
2013-03-04 02:53:00,45.5,34.0,30.14,North,6,6.8,9.9,66,0.00,,,0.00,TxWx,2013-03-04 07:53:00,
2013-03-04 02:56:00,45.6,35.0,30.15,NW,321,11.1,12.4,66,0.00,,,0.00,TxWx,2013-03-04 07:56:00,
2013-03-04 02:57:00,45.6,35.0,30.15,NW,321,11.1,11.1,67,0.00,,,0.00,TxWx,2013-03-04 07:57:00,
2013-03-04 02:59:00,45.7,36.0,30.15,NW,321,5.0,5.0,68,0.00,,,0.00,TxWx,2013-03-04 07:59:00,
2013-03-04 03:00:00,45.7,36.0,30.15,WNW,298,8.7,8.7,67,0.00,,,0.00,TxWx,2013-03-04 08:00:00,
2013-03-04 03:03:00,45.6,35.0,30.15,WNW,298,4.3,9.3,66,0.00,,,0.00,TxWx,2013-03-04 08:03:00,
2013-03-04 03:04:00,45.6,35.0,30.15,North,6,6.2,6.2,66,0.00,,,0.00,TxWx,2013-03-04 08:04:00,
2013-03-04 03:05:00,45.7,35.0,30.15,North,6,11.1,11.8,67,0.00,,,0.00,TxWx,2013-03-04 08:05:00,
2013-03-04 03:06:00,45.6,35.0,30.15,NW,321,10.5,10.5,66,0.00,,,0.00,TxWx,2013-03-04 08:06:00,
2013-03-04 03:10:00,45.5,34.0,30.15,NNW,343,9.9,9.9,66,0.00,,,0.00,TxWx,2013-03-04 08:10:00,
2013-03-04 03:11:00,45.6,35.0,30.15,NNW,343,5.0,5.0,65,0.00,,,0.00,TxWx,2013-03-04 08:11:00,
2013-03-04 03:14:00,45.7,35.0,30.15,WSW,253,7.4,8.0,66,0.00,,,0.00,TxWx,2013-03-04 08:14:00,
2013-03-04 03:16:00,45.6,35.0,30.15,NW,321,10.5,10.5,66,0.00,,,0.00,TxWx,2013-03-04 08:16:00,
2013-03-04 03:18:00,45.6,35.0,30.15,NW,321,10.5,10.5,66,0.00,,,0.00,TxWx,2013-03-04 08:18:00,
2013-03-04 03:21:00,45.4,34.0,30.15,NW,321,3.7,4.3,64,0.00,,,0.00,TxWx,2013-03-04 08:21:00,
2013-03-04 03:22:00,45.6,35.0,30.15,North,6,8.0,8.0,65,0.00,,,0.00,TxWx,2013-03-04 08:22:00,
2013-03-04 03:24:00,45.7,35.0,30.15,NNW,343,4.3,5.0,67,0.00,,,0.00,TxWx,2013-03-04 08:24:00,
2013-03-04 03:26:00,45.6,35.0,30.15,WNW,298,5.0,5.0,66,0.00,,,0.00,TxWx,2013-03-04 08:26:00,
2013-03-04 03:27:00,45.7,35.0,30.15,WNW,298,5.6,6.2,67,0.00,,,0.00,TxWx,2013-03-04 08:27:00,
2013-03-04 03:31:00,45.4,33.0,30.14,NNW,343,9.9,9.9,64,0.00,,,0.00,TxWx,2013-03-04 08:31:00,
2013-03-04 03:33:00,45.5,34.0,30.14,NW,321,11.1,11.1,65,0.00,,,0.00,TxWx,2013-03-04 08:33:00,
2013-03-04 03:34:00,45.6,35.0,30.15,NNW,343,5.6,5.6,65,0.00,,,0.00,TxWx,2013-03-04 08:34:00,
2013-03-04 03:37:00,45.4,34.0,30.14,WNW,298,5.6,6.8,64,0.00,,,0.00,TxWx,2013-03-04 08:37:00,
2013-03-04 03:38:00,45.5,34.0,30.15,NNW,343,11.1,11.8,65,0.00,,,0.00,TxWx,2013-03-04 08:38:00,
2013-03-04 03:39:00,45.5,35.0,30.15,NW,321,7.4,7.4,65,0.00,,,0.00,TxWx,2013-03-04 08:39:00,
2013-03-04 03:43:00,45.3,33.0,30.14,NNW,343,6.8,8.7,63,0.00,,,0.00,TxWx,2013-03-04 08:43:00,
2013-03-04 03:44:00,45.4,33.0,30.15,NW,321,5.0,5.0,64,0.00,,,0.00,TxWx,2013-03-04 08:44:00,
2013-03-04 03:45:00,45.4,34.0,30.15,NW,321,14.2,14.2,65,0.00,,,0.00,TxWx,2013-03-04 08:45:00,
2013-03-04 03:46:00,45.3,33.0,30.15,North,6,5.0,5.0,63,0.00,,,0.00,TxWx,2013-03-04 08:46:00,
2013-03-04 03:49:00,45.3,34.0,30.15,NW,321,7.4,8.7,64,0.00,,,0.00,TxWx,2013-03-04 08:49:00,
2013-03-04 03:51:00,45.3,34.0,30.14,NW,321,6.8,6.8,64,0.00,,,0.00,TxWx,2013-03-04 08:51:00,
2013-03-04 03:53:00,45.4,34.0,30.15,NNW,343,5.6,8.0,65,0.00,,,0.00,TxWx,2013-03-04 08:53:00,
2013-03-04 03:54:00,45.5,34.0,30.15,North,6,13.0,13.0,65,0.00,,,0.00,TxWx,2013-03-04 08:54:00,
2013-03-04 03:59:00,45.4,33.0,30.15,NNW,343,5.0,5.6,64,0.00,,,0.00,TxWx,2013-03-04 08:59:00,
2013-03-04 04:00:00,45.3,33.0,30.15,NNW,343,5.6,5.6,64,0.00,,,0.00,TxWx,2013-03-04 09:00:00,
2013-03-04 04:01:00,45.3,33.0,30.15,NW,321,9.9,9.9,63,0.00,,,0.00,TxWx,2013-03-04 09:01:00,
2013-03-04 04:05:00,45.3,33.0,30.15,WNW,298,4.3,5.0,63,0.00,,,0.00,TxWx,2013-03-04 09:05:00,
2013-03-04 04:06:00,45.4,33.0,30.15,NW,321,6.2,6.2,64,0.00,,,0.00,TxWx,2013-03-04 09:06:00,
2013-03-04 04:11:00,45.3,33.0,30.16,WNW,298,4.3,5.6,62,0.00,,,0.00,TxWx,2013-03-04 09:11:00,
2013-03-04 04:12:00,45.2,32.0,30.16,NW,321,6.2,6.2,61,0.00,,,0.00,TxWx,2013-03-04 09:12:00,
2013-03-04 04:13:00,45.2,33.0,30.16,NNW,343,5.0,5.6,62,0.00,,,0.00,TxWx,2013-03-04 09:13:00,
2013-03-04 04:16:00,45.4,33.0,30.16,West,276,4.3,4.3,64,0.00,,,0.00,TxWx,2013-03-04 09:16:00,
2013-03-04 04:17:00,45.4,34.0,30.16,NW,321,3.1,3.1,64,0.00,,,0.00,TxWx,2013-03-04 09:17:00,
2013-03-04 04:19:00,45.0,32.0,30.16,NNW,343,5.0,6.2,61,0.00,,,0.00,TxWx,2013-03-04 09:19:00,
2013-03-04 04:21:00,45.2,33.0,30.16,WNW,298,3.7,4.3,63,0.00,,,0.00,TxWx,2013-03-04 09:21:00,
2013-03-04 04:22:00,45.1,33.0,30.16,WNW,298,4.3,5.6,63,0.00,,,0.00,TxWx,2013-03-04 09:22:00,
2013-03-04 04:27:00,45.0,33.0,30.16,West,276,1.2,1.9,63,0.00,,,0.00,TxWx,2013-03-04 09:27:00,
2013-03-04 04:29:00,44.9,33.0,30.17,NW,321,4.3,4.3,63,0.00,,,0.00,TxWx,2013-03-04 09:29:00,
2013-03-04 04:32:00,44.8,33.0,30.17,NW,321,3.7,3.7,63,0.00,,,0.00,TxWx,2013-03-04 09:32:00,
2013-03-04 04:33:00,44.8,33.0,30.17,West,276,3.1,3.1,62,0.00,,,0.00,TxWx,2013-03-04 09:33:00,
2013-03-04 04:38:00,44.8,33.0,30.17,WNW,298,3.7,4.3,64,0.00,,,0.00,TxWx,2013-03-04 09:38:00,
2013-03-04 04:40:00,45.0,33.0,30.17,WNW,298,3.1,3.7,64,0.00,,,0.00,TxWx,2013-03-04 09:40:00,
2013-03-04 04:42:00,44.9,33.0,30.17,WNW,298,5.6,5.6,64,0.00,,,0.00,TxWx,2013-03-04 09:42:00,
2013-03-04 04:43:00,44.9,33.0,30.17,North,6,8.7,9.3,64,0.00,,,0.00,TxWx,2013-03-04 09:43:00,
2013-03-04 04:44:00,44.9,33.0,30.17,NW,321,4.3,4.3,64,0.00,,,0.00,TxWx,2013-03-04 09:44:00,
2013-03-04 04:46:00,44.9,33.0,30.17,WNW,298,2.5,3.1,64,0.00,,,0.00,TxWx,2013-03-04 09:46:00,
2013-03-04 04:47:00,44.8,33.0,30.17,NNW,343,5.6,6.8,63,0.00,,,0.00,TxWx,2013-03-04 09:47:00,
2013-03-04 04:48:00,44.9,33.0,30.17,West,276,2.5,3.1,63,0.00,,,0.00,TxWx,2013-03-04 09:48:00,
2013-03-04 04:50:00,44.8,33.0,30.17,NW,321,4.3,5.0,64,0.00,,,0.00,TxWx,2013-03-04 09:50:00,
2013-03-04 04:52:00,44.8,33.0,30.17,NW,321,3.7,5.0,63,0.00,,,0.00,TxWx,2013-03-04 09:52:00,
2013-03-04 04:55:00,44.8,33.0,30.17,NW,321,5.0,5.0,64,0.00,,,0.00,TxWx,2013-03-04 09:55:00,
2013-03-04 04:56:00,44.8,33.0,30.17,NNW,343,5.6,6.8,64,0.00,,,0.00,TxWx,2013-03-04 09:56:00,
2013-03-04 04:57:00,44.8,34.0,30.18,NW,321,5.6,5.6,64,0.00,,,0.00,TxWx,2013-03-04 09:57:00,
2013-03-04 05:01:00,44.9,34.0,30.18,NW,321,3.1,3.1,64,0.00,,,0.00,TxWx,2013-03-04 10:01:00,
2013-03-04 05:02:00,44.8,33.0,30.18,NW,321,6.2,6.2,64,0.00,,,0.00,TxWx,2013-03-04 10:02:00,
2013-03-04 05:03:00,44.9,34.0,30.18,WNW,298,2.5,3.1,64,0.00,,,0.00,TxWx,2013-03-04 10:03:00,
2013-03-04 05:06:00,45.0,34.0,30.18,NW,321,2.5,3.1,66,0.00,,,0.00,TxWx,2013-03-04 10:06:00,
2013-03-04 05:09:00,44.9,34.0,30.18,WNW,298,3.7,4.3,65,0.00,,,0.00,TxWx,2013-03-04 10:09:00,
2013-03-04 05:11:00,44.7,34.0,30.18,West,276,3.7,3.7,65,0.00,,,0.00,TxWx,2013-03-04 10:11:00,
2013-03-04 05:14:00,44.7,34.0,30.18,WNW,298,2.5,2.5,65,0.00,,,0.00,TxWx,2013-03-04 10:14:00,
2013-03-04 05:16:00,44.8,34.0,30.18,NW,321,2.5,2.5,65,0.00,,,0.00,TxWx,2013-03-04 10:16:00,
2013-03-04 05:18:00,44.7,34.0,30.18,NW,321,3.7,3.7,65,0.00,,,0.00,TxWx,2013-03-04 10:18:00,
2013-03-04 05:19:00,44.8,34.0,30.18,NNW,343,3.1,3.1,66,0.00,,,0.00,TxWx,2013-03-04 10:19:00,
2013-03-04 05:21:00,44.7,34.0,30.18,NNW,343,3.7,4.3,65,0.00,,,0.00,TxWx,2013-03-04 10:21:00,
2013-03-04 05:22:00,44.7,34.0,30.18,WNW,298,1.9,2.5,65,0.00,,,0.00,TxWx,2013-03-04 10:22:00,
2013-03-04 05:23:00,44.6,34.0,30.18,WNW,298,4.3,4.3,65,0.00,,,0.00,TxWx,2013-03-04 10:23:00,
2013-03-04 05:24:00,44.7,34.0,30.18,NNW,343,5.0,5.0,66,0.00,,,0.00,TxWx,2013-03-04 10:24:00,
2013-03-04 05:26:00,44.7,34.0,30.18,NW,321,4.3,4.3,66,0.00,,,0.00,TxWx,2013-03-04 10:26:00,
2013-03-04 05:28:00,44.6,34.0,30.18,NW,321,3.1,3.7,66,0.00,,,0.00,TxWx,2013-03-04 10:28:00,
2013-03-04 05:29:00,44.8,34.0,30.18,WSW,253,3.1,3.7,67,0.00,,,0.00,TxWx,2013-03-04 10:29:00,
2013-03-04 05:33:00,44.7,35.0,30.18,WNW,298,5.6,5.6,67,0.00,,,0.00,TxWx,2013-03-04 10:33:00,
2013-03-04 05:34:00,44.7,34.0,30.18,NNW,343,6.8,6.8,66,0.00,,,0.00,TxWx,2013-03-04 10:34:00,
2013-03-04 05:35:00,44.8,34.0,30.18,WNW,298,6.2,7.4,67,0.00,,,0.00,TxWx,2013-03-04 10:35:00,
2013-03-04 05:36:00,44.7,34.0,30.18,WNW,298,3.7,3.7,66,0.00,,,0.00,TxWx,2013-03-04 10:36:00,
2013-03-04 05:39:00,44.7,35.0,30.18,NW,321,4.3,5.6,67,0.00,,,0.00,TxWx,2013-03-04 10:39:00,
2013-03-04 05:40:00,44.8,35.0,30.18,WSW,253,3.1,3.7,67,0.00,,,0.00,TxWx,2013-03-04 10:40:00,
2013-03-04 05:44:00,44.8,35.0,30.18,West,276,3.1,4.3,68,0.00,,,0.00,TxWx,2013-03-04 10:44:00,
2013-03-04 05:45:00,44.8,35.0,30.18,NNW,343,8.7,8.7,68,0.00,,,0.00,TxWx,2013-03-04 10:45:00,
2013-03-04 05:49:00,44.8,35.0,30.18,North,6,6.8,6.8,67,0.00,,,0.00,TxWx,2013-03-04 10:49:00,
2013-03-04 05:50:00,44.8,35.0,30.18,NW,321,5.0,5.0,67,0.00,,,0.00,TxWx,2013-03-04 10:50:00,
2013-03-04 05:51:00,44.7,35.0,30.18,NW,321,4.3,4.3,68,0.00,,,0.00,TxWx,2013-03-04 10:51:00,
2013-03-04 05:55:00,44.9,35.0,30.19,West,276,3.1,3.7,68,0.00,,,0.00,TxWx,2013-03-04 10:55:00,
2013-03-04 05:56:00,44.8,35.0,30.19,WNW,298,6.2,7.4,68,0.00,,,0.00,TxWx,2013-03-04 10:56:00,
2013-03-04 06:00:00,44.8,35.0,30.19,WNW,298,3.1,3.1,67,0.00,,,0.00,TxWx,2013-03-04 11:00:00,
2013-03-04 06:01:00,44.8,35.0,30.19,NW,321,6.8,8.0,68,0.00,,,0.00,TxWx,2013-03-04 11:01:00,
2013-03-04 06:05:00,44.7,35.0,30.19,NW,321,6.2,8.0,67,0.00,,,0.00,TxWx,2013-03-04 11:05:00,
2013-03-04 06:06:00,44.6,35.0,30.19,NNW,343,8.0,9.3,67,0.00,,,0.00,TxWx,2013-03-04 11:06:00,
2013-03-04 06:07:00,44.8,35.0,30.19,North,6,3.7,3.7,68,0.00,,,0.00,TxWx,2013-03-04 11:07:00,
2013-03-04 06:08:00,44.9,35.0,30.19,NW,321,4.3,4.3,69,0.00,,,0.00,TxWx,2013-03-04 11:08:00,
2013-03-04 06:11:00,44.9,35.0,30.19,NNW,343,6.8,6.8,69,0.00,,,0.00,TxWx,2013-03-04 11:11:00,
2013-03-04 06:12:00,44.9,35.0,30.19,WNW,298,3.1,3.7,69,0.00,,,0.00,TxWx,2013-03-04 11:12:00,
2013-03-04 06:14:00,44.9,35.0,30.19,West,276,3.1,4.3,69,0.00,,,0.00,TxWx,2013-03-04 11:14:00,
2013-03-04 06:15:00,44.9,36.0,30.19,WNW,298,3.1,3.1,70,0.00,,,0.00,TxWx,2013-03-04 11:15:00,
2013-03-04 06:16:00,45.0,35.0,30.19,North,6,5.6,6.2,69,0.00,,,0.00,TxWx,2013-03-04 11:16:00,
2013-03-04 06:17:00,44.9,35.0,30.19,NNW,343,4.3,5.0,69,0.00,,,0.00,TxWx,2013-03-04 11:17:00,
2013-03-04 06:20:00,44.9,35.0,30.19,NW,321,5.6,6.8,69,0.00,,,0.00,TxWx,2013-03-04 11:20:00,
2013-03-04 06:22:00,45.1,36.0,30.19,NW,321,5.6,5.6,70,0.00,,,0.00,TxWx,2013-03-04 11:22:00,
2013-03-04 06:23:00,45.1,36.0,30.19,NW,321,3.7,3.7,70,0.00,,,0.00,TxWx,2013-03-04 11:23:00,
2013-03-04 06:24:00,45.0,35.0,30.19,NNW,343,5.0,5.0,69,0.00,,,0.00,TxWx,2013-03-04 11:24:00,
2013-03-04 06:28:00,45.2,36.0,30.20,WNW,298,7.4,8.7,70,0.00,,,0.00,TxWx,2013-03-04 11:28:00,
2013-03-04 06:29:00,45.2,36.0,30.20,NNW,343,8.7,8.7,70,0.00,,,0.00,TxWx,2013-03-04 11:29:00,
2013-03-04 06:30:00,45.3,36.0,30.20,NW,321,5.0,5.0,70,0.00,,,0.00,TxWx,2013-03-04 11:30:00,
2013-03-04 06:34:00,45.2,35.0,30.20,West,276,5.0,5.0,69,0.00,,,0.00,TxWx,2013-03-04 11:34:00,
2013-03-04 06:35:00,45.0,35.0,30.20,WNW,298,4.3,5.0,69,0.00,,,0.00,TxWx,2013-03-04 11:35:00,
2013-03-04 06:38:00,45.0,35.0,30.21,West,276,3.7,3.7,69,0.00,,,0.00,TxWx,2013-03-04 11:38:00,
2013-03-04 06:39:00,44.8,35.0,30.20,NW,321,5.0,5.0,68,0.00,,,0.00,TxWx,2013-03-04 11:39:00,
2013-03-04 06:42:00,44.8,35.0,30.21,NW,321,4.3,4.3,69,0.00,,,0.00,TxWx,2013-03-04 11:42:00,
2013-03-04 06:44:00,44.7,35.0,30.21,WNW,298,6.2,6.8,69,0.00,,,0.00,TxWx,2013-03-04 11:44:00,
2013-03-04 06:45:00,44.6,35.0,30.21,WNW,298,5.0,5.0,68,0.00,,,0.00,TxWx,2013-03-04 11:45:00,
2013-03-04 06:48:00,44.8,35.0,30.21,WNW,298,5.0,5.0,69,0.00,,,0.00,TxWx,2013-03-04 11:48:00,
2013-03-04 06:50:00,44.8,35.0,30.21,NW,321,5.0,5.6,69,0.00,,,0.00,TxWx,2013-03-04 11:50:00,
2013-03-04 06:53:00,44.8,35.0,30.21,NW,321,2.5,3.7,68,0.00,,,0.00,TxWx,2013-03-04 11:53:00,
2013-03-04 06:54:00,44.9,35.0,30.21,NW,321,3.7,4.3,68,0.00,,,0.00,TxWx,2013-03-04 11:54:00,
2013-03-04 06:57:00,44.7,35.0,30.21,NW,321,3.7,4.3,67,0.00,,,0.00,TxWx,2013-03-04 11:57:00,
2013-03-04 06:58:00,44.7,35.0,30.21,WNW,298,5.0,5.0,68,0.00,,,0.00,TxWx,2013-03-04 11:58:00,
2013-03-04 07:01:00,44.7,35.0,30.21,NW,321,3.7,3.7,67,0.00,,,0.00,TxWx,2013-03-04 12:01:00,
2013-03-04 07:02:00,44.8,35.0,30.21,WNW,298,6.8,8.0,69,0.00,,,0.00,TxWx,2013-03-04 12:02:00,
2013-03-04 07:04:00,44.8,35.0,30.22,NW,321,5.6,5.6,69,0.00,,,0.00,TxWx,2013-03-04 12:04:00,
2013-03-04 07:07:00,44.8,35.0,30.22,NW,321,7.4,8.0,68,0.00,,,0.00,TxWx,2013-03-04 12:07:00,
2013-03-04 07:09:00,44.9,35.0,30.22,WNW,298,4.3,5.0,67,0.00,,,0.00,TxWx,2013-03-04 12:09:00,
2013-03-04 07:12:00,45.0,34.0,30.22,NW,321,5.6,5.6,66,0.00,,,0.00,TxWx,2013-03-04 12:12:00,
2013-03-04 07:14:00,45.0,34.0,30.22,NW,321,8.0,8.0,67,0.00,,,0.00,TxWx,2013-03-04 12:14:00,
2013-03-04 07:15:00,45.0,34.0,30.22,WNW,298,5.6,5.6,66,0.00,,,0.00,TxWx,2013-03-04 12:15:00,
2013-03-04 07:18:00,45.1,34.0,30.22,NW,321,3.1,3.7,65,0.00,,,0.00,TxWx,2013-03-04 12:18:00,
2013-03-04 07:19:00,45.1,34.0,30.22,NNW,343,3.7,4.3,65,0.00,,,0.00,TxWx,2013-03-04 12:19:00,
2013-03-04 07:20:00,45.1,34.0,30.22,WNW,298,5.0,5.6,65,0.00,,,0.00,TxWx,2013-03-04 12:20:00,
2013-03-04 07:23:00,45.2,34.0,30.22,NW,321,3.7,5.0,65,0.00,,,0.00,TxWx,2013-03-04 12:23:00,
2013-03-04 07:25:00,45.2,34.0,30.22,WNW,298,6.2,6.8,65,0.00,,,0.00,TxWx,2013-03-04 12:25:00,
2013-03-04 07:28:00,45.4,34.0,30.23,North,6,4.3,5.6,65,0.00,,,0.00,TxWx,2013-03-04 12:28:00,
2013-03-04 07:30:00,45.4,34.0,30.23,NW,321,10.5,10.5,64,0.00,,,0.00,TxWx,2013-03-04 12:30:00,
2013-03-04 07:31:00,45.4,33.0,30.22,WNW,298,4.3,5.0,63,0.00,,,0.00,TxWx,2013-03-04 12:31:00,
2013-03-04 07:35:00,45.5,33.0,30.23,NW,321,5.0,6.2,62,0.00,,,0.00,TxWx,2013-03-04 12:35:00,
2013-03-04 07:36:00,45.7,34.0,30.23,West,276,4.3,4.3,63,0.00,,,0.00,TxWx,2013-03-04 12:36:00,
2013-03-04 07:41:00,46.1,33.0,30.23,NNW,343,5.0,5.6,61,0.00,,,0.00,TxWx,2013-03-04 12:41:00,
2013-03-04 07:42:00,46.3,34.0,30.23,WNW,298,6.2,7.4,62,0.00,,,0.00,TxWx,2013-03-04 12:42:00,
2013-03-04 07:46:00,46.4,33.0,30.23,WNW,298,8.0,8.0,60,0.00,,,0.00,TxWx,2013-03-04 12:46:00,
2013-03-04 07:47:00,46.4,32.0,30.23,NNW,343,6.8,6.8,59,0.00,,,0.00,TxWx,2013-03-04 12:47:00,
2013-03-04 07:48:00,46.4,32.0,30.23,NW,321,7.4,7.4,59,0.00,,,0.00,TxWx,2013-03-04 12:48:00,
2013-03-04 07:51:00,46.8,33.0,30.23,NNW,343,5.6,5.6,58,0.00,,,0.00,TxWx,2013-03-04 12:51:00,
2013-03-04 07:52:00,46.8,33.0,30.23,NW,321,9.9,9.9,58,0.00,,,0.00,TxWx,2013-03-04 12:52:00,
2013-03-04 07:54:00,46.9,33.0,30.23,NW,321,6.8,7.4,58,0.00,,,0.00,TxWx,2013-03-04 12:54:00,
2013-03-04 07:57:00,47.2,33.0,30.23,North,6,6.8,8.0,58,0.00,,,0.00,TxWx,2013-03-04 12:57:00,
2013-03-04 07:59:00,47.5,34.0,30.23,NNW,343,5.6,5.6,59,0.00,,,0.00,TxWx,2013-03-04 12:59:00,
2013-03-04 08:00:00,47.6,34.0,30.23,NNW,343,5.6,5.6,59,0.00,,,0.00,TxWx,2013-03-04 13:00:00,
2013-03-04 08:02:00,47.6,33.0,30.23,NW,321,5.6,6.2,57,0.00,,,0.00,TxWx,2013-03-04 13:02:00,
2013-03-04 08:06:00,47.7,32.0,30.23,East,96,3.1,4.3,55,0.00,,,0.00,TxWx,2013-03-04 13:06:00,
2013-03-04 08:07:00,47.9,33.0,30.25,NW,321,5.0,5.6,56,0.00,,,0.00,TxWx,2013-03-04 13:07:00,
2013-03-04 08:09:00,48.2,33.0,30.23,NW,321,5.0,5.6,57,0.00,,,0.00,TxWx,2013-03-04 13:09:00,
2013-03-04 08:11:00,48.0,31.0,30.23,West,276,8.7,8.7,54,0.00,,,0.00,TxWx,2013-03-04 13:11:00,
2013-03-04 08:12:00,48.1,31.0,30.23,NNW,343,7.4,8.7,53,0.00,,,0.00,TxWx,2013-03-04 13:12:00,
2013-03-04 08:13:00,48.3,33.0,30.24,NNW,343,7.4,8.7,55,0.00,,,0.00,TxWx,2013-03-04 13:13:00,
2013-03-04 08:14:00,48.3,32.0,30.24,WNW,298,5.0,5.0,55,0.00,,,0.00,TxWx,2013-03-04 13:14:00,
2013-03-04 08:16:00,48.3,30.0,30.24,NNW,343,5.6,5.6,53,0.00,,,0.00,TxWx,2013-03-04 13:16:00,
2013-03-04 08:17:00,48.3,31.0,30.24,NW,321,10.5,10.5,54,0.00,,,0.00,TxWx,2013-03-04 13:17:00,
2013-03-04 08:18:00,48.4,31.0,30.24,NNW,343,8.0,8.0,53,0.00,,,0.00,TxWx,2013-03-04 13:18:00,
2013-03-04 08:19:00,48.3,30.0,30.24,NW,321,6.2,6.2,52,0.00,,,0.00,TxWx,2013-03-04 13:19:00,
2013-03-04 08:23:00,48.6,33.0,30.24,NNW,343,7.4,9.9,54,0.00,,,0.00,TxWx,2013-03-04 13:23:00,
2013-03-04 08:24:00,48.6,32.0,30.24,NW,321,6.8,7.4,53,0.00,,,0.00,TxWx,2013-03-04 13:24:00,
2013-03-04 08:28:00,49.0,34.0,30.24,NW,321,5.6,6.2,56,0.00,,,0.00,TxWx,2013-03-04 13:28:00,
2013-03-04 08:29:00,49.2,34.0,30.24,NNW,343,7.4,8.0,56,0.00,,,0.00,TxWx,2013-03-04 13:29:00,
2013-03-04 08:30:00,49.1,33.0,30.24,NW,321,5.6,5.6,55,0.00,,,0.00,TxWx,2013-03-04 13:30:00,
2013-03-04 08:33:00,49.3,34.0,30.24,NW,321,6.2,6.2,56,0.00,,,0.00,TxWx,2013-03-04 13:33:00,
2013-03-04 08:35:00,49.2,33.0,30.24,North,6,6.2,6.2,54,0.00,,,0.00,TxWx,2013-03-04 13:35:00,
2013-03-04 08:36:00,49.0,31.0,30.24,NNW,343,7.4,7.4,52,0.00,,,0.00,TxWx,2013-03-04 13:36:00,
2013-03-04 08:39:00,49.1,32.0,30.24,NNW,343,9.3,9.3,52,0.00,,,0.00,TxWx,2013-03-04 13:39:00,
2013-03-04 08:40:00,49.2,33.0,30.24,NNW,343,6.2,6.2,53,0.00,,,0.00,TxWx,2013-03-04 13:40:00,
2013-03-04 08:42:00,49.2,32.0,30.24,NW,321,5.6,6.2,53,0.00,,,0.00,TxWx,2013-03-04 13:42:00,
2013-03-04 08:45:00,49.3,32.0,30.24,North,6,6.8,6.8,53,0.00,,,0.00,TxWx,2013-03-04 13:45:00,
2013-03-04 08:46:00,49.3,33.0,30.24,North,6,10.5,10.5,53,0.00,,,0.00,TxWx,2013-03-04 13:46:00,
2013-03-04 08:49:00,49.5,34.0,30.24,NW,321,9.9,9.9,54,0.00,,,0.00,TxWx,2013-03-04 13:49:00,
2013-03-04 08:51:00,49.7,34.0,30.24,NW,321,4.3,5.0,54,0.00,,,0.00,TxWx,2013-03-04 13:51:00,
2013-03-04 08:53:00,49.5,31.0,30.24,NW,321,8.7,12.4,52,0.00,,,0.00,TxWx,2013-03-04 13:53:00,
2013-03-04 08:54:00,49.5,33.0,30.24,NNW,343,6.8,8.7,52,0.00,,,0.00,TxWx,2013-03-04 13:54:00,
2013-03-04 08:56:00,49.5,33.0,30.24,NNW,343,10.5,11.1,51,0.00,,,0.00,TxWx,2013-03-04 13:56:00,
2013-03-04 08:59:00,49.8,33.0,30.24,NW,321,13.0,13.0,53,0.00,,,0.00,TxWx,2013-03-04 13:59:00,
2013-03-04 09:00:00,49.8,33.0,30.24,NNW,343,5.0,5.0,53,0.00,,,0.00,TxWx,2013-03-04 14:00:00,
2013-03-04 09:02:00,49.7,33.0,30.24,NNW,343,11.8,13.0,52,0.00,,,0.00,TxWx,2013-03-04 14:02:00,
2013-03-04 09:05:00,49.7,33.0,30.24,WNW,298,8.7,8.7,51,0.00,,,0.00,TxWx,2013-03-04 14:05:00,
2013-03-04 09:06:00,49.8,33.0,30.24,NW,321,6.8,6.8,52,0.00,,,0.00,TxWx,2013-03-04 14:06:00,
2013-03-04 09:08:00,49.8,33.0,30.24,NNW,343,6.8,10.5,52,0.00,,,0.00,TxWx,2013-03-04 14:08:00,
2013-03-04 09:11:00,50.3,34.0,30.24,North,6,8.7,9.9,55,0.00,,,0.00,TxWx,2013-03-04 14:11:00,
2013-03-04 09:12:00,50.1,33.0,30.24,NNW,343,11.8,11.8,53,0.00,,,0.00,TxWx,2013-03-04 14:12:00,
2013-03-04 09:15:00,50.4,34.0,30.24,NW,321,5.0,6.2,53,0.00,,,0.00,TxWx,2013-03-04 14:15:00,
2013-03-04 09:17:00,50.4,33.0,30.25,WNW,298,9.9,9.9,53,0.00,,,0.00,TxWx,2013-03-04 14:17:00,
2013-03-04 09:21:00,50.5,35.0,30.24,WNW,298,9.9,10.5,54,0.00,,,0.00,TxWx,2013-03-04 14:21:00,
2013-03-04 09:23:00,50.7,34.0,30.26,NW,321,8.0,8.0,53,0.00,,,0.00,TxWx,2013-03-04 14:23:00,
2013-03-04 09:24:00,50.8,35.0,30.25,WNW,298,11.8,11.8,54,0.00,,,0.00,TxWx,2013-03-04 14:24:00,
2013-03-04 09:27:00,50.6,34.0,30.24,NW,321,7.4,8.0,53,0.00,,,0.00,TxWx,2013-03-04 14:27:00,
2013-03-04 09:28:00,50.8,34.0,30.24,NNW,343,9.3,9.3,53,0.00,,,0.00,TxWx,2013-03-04 14:28:00,
2013-03-04 09:29:00,50.7,34.0,30.24,North,6,9.9,11.1,52,0.00,,,0.00,TxWx,2013-03-04 14:29:00,
2013-03-04 09:32:00,51.0,35.0,30.24,WNW,298,9.3,9.9,54,0.00,,,0.00,TxWx,2013-03-04 14:32:00,
2013-03-04 09:34:00,51.2,34.0,30.24,NNW,343,6.2,6.2,53,0.00,,,0.00,TxWx,2013-03-04 14:34:00,
2013-03-04 09:35:00,51.5,35.0,30.25,NW,321,6.2,6.8,54,0.00,,,0.00,TxWx,2013-03-04 14:35:00,
2013-03-04 09:36:00,51.4,34.0,30.24,North,6,6.8,7.4,53,0.00,,,0.00,TxWx,2013-03-04 14:36:00,
2013-03-04 09:39:00,51.4,34.0,30.24,NNW,343,6.8,6.8,53,0.00,,,0.00,TxWx,2013-03-04 14:39:00,
2013-03-04 09:40:00,51.5,34.0,30.24,NW,321,5.6,6.2,52,0.00,,,0.00,TxWx,2013-03-04 14:40:00,
2013-03-04 09:42:00,51.6,35.0,30.24,NNW,343,6.8,6.8,52,0.00,,,0.00,TxWx,2013-03-04 14:42:00,
2013-03-04 09:43:00,51.8,36.0,30.24,NNE,28,6.2,6.2,54,0.00,,,0.00,TxWx,2013-03-04 14:43:00,
2013-03-04 09:45:00,51.7,34.0,30.24,NW,321,5.6,5.6,51,0.00,,,0.00,TxWx,2013-03-04 14:45:00,
2013-03-04 09:47:00,51.7,34.0,30.24,North,6,8.0,8.0,50,0.00,,,0.00,TxWx,2013-03-04 14:47:00,
2013-03-04 09:48:00,51.5,33.0,30.24,NW,321,5.6,6.8,48,0.00,,,0.00,TxWx,2013-03-04 14:48:00,
2013-03-04 09:50:00,51.6,33.0,30.24,NNW,343,14.9,14.9,49,0.00,,,0.00,TxWx,2013-03-04 14:50:00,
2013-03-04 09:51:00,51.7,33.0,30.24,NNW,343,9.3,9.3,49,0.00,,,0.00,TxWx,2013-03-04 14:51:00,
2013-03-04 09:56:00,51.9,34.0,30.23,NW,321,9.3,9.3,51,0.00,,,0.00,TxWx,2013-03-04 14:56:00,
2013-03-04 09:57:00,52.1,34.0,30.24,North,6,6.2,6.2,50,0.00,,,0.00,TxWx,2013-03-04 14:57:00,
2013-03-04 10:01:00,52.4,34.0,30.24,NE,51,9.9,14.2,51,0.00,,,0.00,TxWx,2013-03-04 15:01:00,
2013-03-04 10:03:00,52.4,34.0,30.24,NW,321,9.9,9.9,50,0.00,,,0.00,TxWx,2013-03-04 15:03:00,
2013-03-04 10:04:00,52.5,34.0,30.23,West,276,5.6,5.6,50,0.00,,,0.00,TxWx,2013-03-04 15:04:00,
2013-03-04 10:06:00,52.7,35.0,30.23,WNW,298,5.6,6.2,51,0.00,,,0.00,TxWx,2013-03-04 15:06:00,
2013-03-04 10:09:00,52.5,34.0,30.23,NNW,343,12.4,12.4,49,0.00,,,0.00,TxWx,2013-03-04 15:09:00,
2013-03-04 10:12:00,52.9,35.0,30.23,West,276,6.2,8.0,50,0.00,,,0.00,TxWx,2013-03-04 15:12:00,
2013-03-04 10:14:00,52.9,34.0,30.24,NNW,343,9.3,10.5,48,0.00,,,0.00,TxWx,2013-03-04 15:14:00,
2013-03-04 10:15:00,52.6,32.0,30.23,NNW,343,7.4,7.4,46,0.00,,,0.00,TxWx,2013-03-04 15:15:00,
2013-03-04 10:19:00,52.8,34.0,30.23,West,276,9.3,9.3,49,0.00,,,0.00,TxWx,2013-03-04 15:19:00,
2013-03-04 10:21:00,52.7,32.0,30.23,NNW,343,6.2,8.0,46,0.00,,,0.00,TxWx,2013-03-04 15:21:00,
2013-03-04 10:24:00,52.7,32.0,30.23,WNW,298,9.3,9.9,46,0.00,,,0.00,TxWx,2013-03-04 15:24:00,
2013-03-04 10:25:00,53.1,34.0,30.23,WNW,298,6.2,6.2,48,0.00,,,0.00,TxWx,2013-03-04 15:25:00,
2013-03-04 10:27:00,53.2,33.0,30.23,North,6,8.7,9.9,47,0.00,,,0.00,TxWx,2013-03-04 15:27:00,
2013-03-04 10:29:00,53.6,34.0,30.24,WSW,253,3.7,4.3,47,0.00,,,0.00,TxWx,2013-03-04 15:29:00,
2013-03-04 10:31:00,53.7,35.0,30.24,NW,321,5.0,5.0,48,0.00,,,0.00,TxWx,2013-03-04 15:31:00,
2013-03-04 10:34:00,53.7,33.0,30.24,NNW,343,7.4,8.7,45,0.00,,,0.00,TxWx,2013-03-04 15:34:00,
2013-03-04 10:36:00,53.6,32.0,30.24,NW,321,9.9,10.5,44,0.00,,,0.00,TxWx,2013-03-04 15:36:00,
2013-03-04 10:39:00,53.7,31.0,30.24,WNW,298,5.6,6.8,43,0.00,,,0.00,TxWx,2013-03-04 15:39:00,
2013-03-04 10:40:00,53.7,33.0,30.24,NW,321,9.3,9.3,45,0.00,,,0.00,TxWx,2013-03-04 15:40:00,
2013-03-04 10:42:00,53.9,33.0,30.24,NNE,28,9.9,10.5,44,0.00,,,0.00,TxWx,2013-03-04 15:42:00,
2013-03-04 10:44:00,53.9,30.0,30.24,NNW,343,8.7,8.7,42,0.00,,,0.00,TxWx,2013-03-04 15:44:00,
2013-03-04 10:45:00,54.0,30.0,30.24,NNW,343,4.3,5.0,42,0.00,,,0.00,TxWx,2013-03-04 15:45:00,
2013-03-04 10:48:00,54.1,31.0,30.24,NNW,343,6.2,6.2,43,0.00,,,0.00,TxWx,2013-03-04 15:48:00,
2013-03-04 10:50:00,54.2,30.0,30.24,WNW,298,3.1,3.1,41,0.00,,,0.00,TxWx,2013-03-04 15:50:00,
2013-03-04 10:51:00,54.2,30.0,30.24,WNW,298,5.0,5.0,42,0.00,,,0.00,TxWx,2013-03-04 15:51:00,
2013-03-04 10:53:00,54.5,33.0,30.24,NNW,343,7.4,8.0,44,0.00,,,0.00,TxWx,2013-03-04 15:53:00,
2013-03-04 10:55:00,54.6,31.0,30.24,North,6,6.2,6.8,42,0.00,,,0.00,TxWx,2013-03-04 15:55:00,
2013-03-04 10:59:00,55.1,33.0,30.24,NW,321,4.3,4.3,44,0.00,,,0.00,TxWx,2013-03-04 15:59:00,
2013-03-04 11:02:00,55.2,30.0,30.24,WNW,298,2.5,2.5,40,0.00,,,0.00,TxWx,2013-03-04 16:02:00,
2013-03-04 11:05:00,55.2,29.0,30.25,North,6,5.6,6.2,39,0.00,,,0.00,TxWx,2013-03-04 16:05:00,
2013-03-04 11:08:00,55.5,29.0,30.24,NNW,343,6.2,6.2,39,0.00,,,0.00,TxWx,2013-03-04 16:08:00,
2013-03-04 11:11:00,55.7,31.0,30.24,WNW,298,4.3,4.3,40,0.00,,,0.00,TxWx,2013-03-04 16:11:00,
2013-03-04 11:12:00,55.8,31.0,30.24,NNW,343,5.0,5.0,40,0.00,,,0.00,TxWx,2013-03-04 16:12:00,
2013-03-04 11:13:00,55.9,30.0,30.24,NNW,343,2.5,2.5,39,0.00,,,0.00,TxWx,2013-03-04 16:13:00,
2013-03-04 11:17:00,55.8,29.0,30.23,North,6,5.6,5.6,37,0.00,,,0.00,TxWx,2013-03-04 16:17:00,
2013-03-04 11:18:00,56.1,29.0,30.23,NNW,343,1.9,2.5,38,0.00,,,0.00,TxWx,2013-03-04 16:18:00,
2013-03-04 11:22:00,56.1,29.0,30.23,NW,321,4.3,4.3,37,0.00,,,0.00,TxWx,2013-03-04 16:22:00,
2013-03-04 11:23:00,56.3,30.0,30.23,North,6,5.0,5.0,38,0.00,,,0.00,TxWx,2013-03-04 16:23:00,
2013-03-04 11:24:00,56.3,30.0,30.24,NNW,343,7.4,7.4,39,0.00,,,0.00,TxWx,2013-03-04 16:24:00,
2013-03-04 11:28:00,56.6,30.0,30.23,NNE,28,6.2,6.2,38,0.00,,,0.00,TxWx,2013-03-04 16:28:00,
2013-03-04 11:29:00,56.6,30.0,30.23,NW,321,5.0,5.0,37,0.00,,,0.00,TxWx,2013-03-04 16:29:00,
2013-03-04 11:34:00,57.1,30.0,30.23,WNW,298,5.6,6.8,38,0.00,,,0.00,TxWx,2013-03-04 16:34:00,
2013-03-04 11:35:00,57.1,30.0,30.23,North,6,5.6,5.6,37,0.00,,,0.00,TxWx,2013-03-04 16:35:00,
2013-03-04 11:40:00,57.3,28.0,30.23,NE,51,3.7,4.3,35,0.00,,,0.00,TxWx,2013-03-04 16:40:00,
2013-03-04 11:41:00,57.3,27.0,30.22,NW,321,3.7,5.0,34,0.00,,,0.00,TxWx,2013-03-04 16:41:00,
2013-03-04 11:46:00,57.7,29.0,30.22,NNE,28,5.0,6.2,34,0.00,,,0.00,TxWx,2013-03-04 16:46:00,
2013-03-04 11:49:00,57.9,29.0,30.22,NW,321,3.7,3.7,35,0.00,,,0.00,TxWx,2013-03-04 16:49:00,
2013-03-04 11:51:00,57.9,28.0,30.22,NW,321,2.5,3.1,34,0.00,,,0.00,TxWx,2013-03-04 16:51:00,
2013-03-04 11:52:00,58.2,28.0,30.22,NNW,343,5.0,5.6,33,0.00,,,0.00,TxWx,2013-03-04 16:52:00,
2013-03-04 11:55:00,58.6,29.0,30.22,NNW,343,3.1,3.1,33,0.00,,,0.00,TxWx,2013-03-04 16:55:00,
2013-03-04 11:56:00,58.9,29.0,30.22,WSW,253,1.2,1.9,33,0.00,,,0.00,TxWx,2013-03-04 16:56:00,
2013-03-04 11:57:00,59.2,29.0,30.22,NNW,343,3.7,3.7,34,0.00,,,0.00,TxWx,2013-03-04 16:57:00,
2013-03-04 12:00:00,58.5,29.0,30.21,NNW,343,5.6,6.2,33,0.00,,,0.00,TxWx,2013-03-04 17:00:00,
2013-03-04 12:02:00,58.3,27.0,30.21,NNE,28,6.2,7.4,32,0.00,,,0.00,TxWx,2013-03-04 17:02:00,
2013-03-04 12:03:00,58.4,27.0,30.21,NW,321,3.7,4.3,32,0.00,,,0.00,TxWx,2013-03-04 17:03:00,
2013-03-04 12:05:00,58.7,28.0,30.21,East,96,1.2,1.2,32,0.00,,,0.00,TxWx,2013-03-04 17:05:00,
2013-03-04 12:07:00,58.9,28.0,30.21,NW,321,1.9,1.9,32,0.00,,,0.00,TxWx,2013-03-04 17:07:00,
2013-03-04 12:11:00,59.0,28.0,30.21,East,96,3.1,3.7,32,0.00,,,0.00,TxWx,2013-03-04 17:11:00,
2013-03-04 12:12:00,59.0,28.0,30.21,NNW,343,7.4,7.4,32,0.00,,,0.00,TxWx,2013-03-04 17:12:00,
2013-03-04 12:13:00,59.0,27.0,30.21,NNW,343,3.7,3.7,31,0.00,,,0.00,TxWx,2013-03-04 17:13:00,
2013-03-04 12:16:00,59.2,28.0,30.20,NNW,343,3.1,3.7,32,0.00,,,0.00,TxWx,2013-03-04 17:16:00,
2013-03-04 12:17:00,59.5,28.0,30.20,NNE,28,2.5,2.5,32,0.00,,,0.00,TxWx,2013-03-04 17:17:00,
2013-03-04 12:18:00,59.7,30.0,30.20,NNW,343,5.0,5.6,34,0.00,,,0.00,TxWx,2013-03-04 17:18:00,
2013-03-04 12:22:00,60.3,33.0,30.20,NE,51,5.6,5.6,36,0.00,,,0.00,TxWx,2013-03-04 17:22:00,
2013-03-04 12:23:00,60.3,31.0,30.20,NNW,343,2.5,3.1,35,0.00,,,0.00,TxWx,2013-03-04 17:23:00,
2013-03-04 12:24:00,60.4,33.0,30.19,NE,51,6.8,6.8,36,0.00,,,0.00,TxWx,2013-03-04 17:24:00,
2013-03-04 12:27:00,60.6,35.0,30.20,NNE,28,1.9,1.9,38,0.00,,,0.00,TxWx,2013-03-04 17:27:00,
2013-03-04 12:28:00,60.5,33.0,30.20,North,6,5.0,5.6,36,0.00,,,0.00,TxWx,2013-03-04 17:28:00,
2013-03-04 12:30:00,60.6,33.0,30.20,NW,321,3.1,3.1,36,0.00,,,0.00,TxWx,2013-03-04 17:30:00,
2013-03-04 12:33:00,60.8,35.0,30.20,NNE,28,3.7,3.7,39,0.00,,,0.00,TxWx,2013-03-04 17:33:00,
2013-03-04 12:35:00,60.7,34.0,30.19,ENE,73,2.5,2.5,37,0.00,,,0.00,TxWx,2013-03-04 17:35:00,
2013-03-04 12:38:00,60.6,36.0,30.19,North,6,3.1,3.7,40,0.00,,,0.00,TxWx,2013-03-04 17:38:00,
2013-03-04 12:39:00,60.6,36.0,30.19,NE,51,1.2,1.9,40,0.00,,,0.00,TxWx,2013-03-04 17:39:00,
2013-03-04 12:41:00,60.7,36.0,30.19,NNE,28,5.6,5.6,40,0.00,,,0.00,TxWx,2013-03-04 17:41:00,
2013-03-04 12:44:00,60.6,37.0,30.19,North,6,5.0,5.6,41,0.00,,,0.00,TxWx,2013-03-04 17:44:00,
2013-03-04 12:45:00,60.5,37.0,30.19,NNE,28,6.2,6.2,41,0.00,,,0.00,TxWx,2013-03-04 17:45:00,
2013-03-04 12:48:00,60.4,35.0,30.19,East,96,2.5,3.7,39,0.00,,,0.00,TxWx,2013-03-04 17:48:00,
2013-03-04 12:50:00,60.2,36.0,30.19,ENE,73,3.1,3.1,40,0.00,,,0.00,TxWx,2013-03-04 17:50:00,
2013-03-04 12:51:00,60.3,37.0,30.19,ENE,73,8.0,8.7,43,0.00,,,0.00,TxWx,2013-03-04 17:51:00,
2013-03-04 12:53:00,60.0,35.0,30.19,North,6,6.8,7.4,40,0.00,,,0.00,TxWx,2013-03-04 17:53:00,
2013-03-04 12:55:00,60.5,36.0,30.19,NNE,28,7.4,8.0,42,0.00,,,0.00,TxWx,2013-03-04 17:55:00,
2013-03-04 12:56:00,60.4,38.0,30.19,North,6,9.9,10.5,44,0.00,,,0.00,TxWx,2013-03-04 17:56:00,
2013-03-04 12:58:00,60.3,37.0,30.19,ENE,73,7.4,8.7,43,0.00,,,0.00,TxWx,2013-03-04 17:58:00,
2013-03-04 13:01:00,60.6,38.0,30.19,NNE,28,3.7,3.7,42,0.00,,,0.00,TxWx,2013-03-04 18:01:00,
2013-03-04 13:02:00,60.4,37.0,30.19,SE,141,5.0,6.8,42,0.00,,,0.00,TxWx,2013-03-04 18:02:00,
2013-03-04 13:04:00,60.1,36.0,30.19,North,6,6.2,8.7,41,0.00,,,0.00,TxWx,2013-03-04 18:04:00,
2013-03-04 13:07:00,60.5,38.0,30.19,NW,321,4.3,4.3,45,0.00,,,0.00,TxWx,2013-03-04 18:07:00,
2013-03-04 13:10:00,60.4,36.0,30.19,NE,51,9.3,9.3,41,0.00,,,0.00,TxWx,2013-03-04 18:10:00,
2013-03-04 13:12:00,60.6,38.0,30.19,NE,51,4.3,4.3,43,0.00,,,0.00,TxWx,2013-03-04 18:12:00,
2013-03-04 13:14:00,60.6,39.0,30.19,NE,51,6.2,6.8,44,0.00,,,0.00,TxWx,2013-03-04 18:14:00,
2013-03-04 13:16:00,60.3,37.0,30.19,North,6,6.8,9.9,42,0.00,,,0.00,TxWx,2013-03-04 18:16:00,
2013-03-04 13:17:00,60.3,37.0,30.19,NNE,28,8.7,9.9,43,0.00,,,0.00,TxWx,2013-03-04 18:17:00,
2013-03-04 13:21:00,60.6,39.0,30.18,North,6,7.4,8.7,44,0.00,,,0.00,TxWx,2013-03-04 18:21:00,
2013-03-04 13:22:00,60.4,37.0,30.18,West,276,3.7,5.6,43,0.00,,,0.00,TxWx,2013-03-04 18:22:00,
2013-03-04 13:24:00,60.4,38.0,30.18,NW,321,5.6,5.6,45,0.00,,,0.00,TxWx,2013-03-04 18:24:00,
2013-03-04 13:28:00,60.4,38.0,30.18,SE,141,5.6,6.2,45,0.00,,,0.00,TxWx,2013-03-04 18:28:00,
2013-03-04 13:29:00,60.4,39.0,30.18,SE,141,3.7,4.3,45,0.00,,,0.00,TxWx,2013-03-04 18:29:00,
2013-03-04 13:30:00,60.6,39.0,30.18,NNW,343,3.1,3.7,45,0.00,,,0.00,TxWx,2013-03-04 18:30:00,
2013-03-04 13:34:00,60.7,40.0,30.18,North,6,4.3,4.3,47,0.00,,,0.00,TxWx,2013-03-04 18:34:00,
2013-03-04 13:35:00,60.9,40.0,30.18,NNE,28,12.4,12.4,47,0.00,,,0.00,TxWx,2013-03-04 18:35:00,
2013-03-04 13:37:00,60.4,37.0,30.18,NE,51,5.6,5.6,43,0.00,,,0.00,TxWx,2013-03-04 18:37:00,
2013-03-04 13:41:00,60.7,39.0,30.18,NNE,28,6.2,6.2,45,0.00,,,0.00,TxWx,2013-03-04 18:41:00,
2013-03-04 13:43:00,60.6,39.0,30.18,ENE,73,5.6,5.6,45,0.00,,,0.00,TxWx,2013-03-04 18:43:00,
2013-03-04 13:47:00,60.9,40.0,30.18,ENE,73,6.8,6.8,46,0.00,,,0.00,TxWx,2013-03-04 18:47:00,
2013-03-04 13:48:00,61.1,41.0,30.18,North,6,8.7,8.7,48,0.00,,,0.00,TxWx,2013-03-04 18:48:00,
2013-03-04 13:49:00,61.0,40.0,30.19,ENE,73,10.5,10.5,46,0.00,,,0.00,TxWx,2013-03-04 18:49:00,
2013-03-04 13:52:00,61.3,41.0,30.18,NNW,343,5.0,6.8,48,0.00,,,0.00,TxWx,2013-03-04 18:52:00,
2013-03-04 13:53:00,61.2,42.0,30.18,NNE,28,10.5,10.5,50,0.00,,,0.00,TxWx,2013-03-04 18:53:00,
2013-03-04 13:54:00,61.3,42.0,30.18,NNW,343,6.2,6.2,50,0.00,,,0.00,TxWx,2013-03-04 18:54:00,
2013-03-04 13:55:00,61.2,41.0,30.18,NE,51,2.5,2.5,48,0.00,,,0.00,TxWx,2013-03-04 18:55:00,
2013-03-04 13:57:00,60.5,39.0,30.18,North,6,6.2,7.4,45,0.00,,,0.00,TxWx,2013-03-04 18:57:00,
2013-03-04 13:59:00,60.8,41.0,30.18,ENE,73,9.9,9.9,47,0.00,,,0.00,TxWx,2013-03-04 18:59:00,
2013-03-04 14:01:00,60.8,40.0,30.18,NE,51,3.7,3.7,46,0.00,,,0.00,TxWx,2013-03-04 19:01:00,
2013-03-04 14:02:00,60.7,39.0,30.18,NE,51,4.3,5.0,44,0.00,,,0.00,TxWx,2013-03-04 19:02:00,
2013-03-04 14:07:00,61.0,39.0,30.19,NE,51,10.5,10.5,45,0.00,,,0.00,TxWx,2013-03-04 19:07:00,
2013-03-04 14:08:00,60.6,38.0,30.17,North,6,3.7,5.0,43,0.00,,,0.00,TxWx,2013-03-04 19:08:00,
2013-03-04 14:12:00,61.2,40.0,30.17,NW,321,4.3,5.0,47,0.00,,,0.00,TxWx,2013-03-04 19:12:00,
2013-03-04 14:13:00,60.9,39.0,30.17,NE,51,6.2,6.2,44,0.00,,,0.00,TxWx,2013-03-04 19:13:00,
2013-03-04 14:17:00,61.0,39.0,30.17,WNW,298,3.1,3.7,45,0.00,,,0.00,TxWx,2013-03-04 19:17:00,
2013-03-04 14:19:00,61.1,41.0,30.17,NW,321,7.4,7.4,48,0.00,,,0.00,TxWx,2013-03-04 19:19:00,
2013-03-04 14:22:00,60.8,39.0,30.17,NW,321,2.5,2.5,45,0.00,,,0.00,TxWx,2013-03-04 19:22:00,
2013-03-04 14:24:00,60.8,40.0,30.17,North,6,5.0,5.0,46,0.00,,,0.00,TxWx,2013-03-04 19:24:00,
2013-03-04 14:28:00,61.0,39.0,30.17,NNE,28,6.2,6.2,45,0.00,,,0.00,TxWx,2013-03-04 19:28:00,
2013-03-04 14:29:00,60.9,39.0,30.17,North,6,8.7,9.3,44,0.00,,,0.00,TxWx,2013-03-04 19:29:00,
2013-03-04 14:33:00,61.1,41.0,30.17,NE,51,7.4,8.7,48,0.00,,,0.00,TxWx,2013-03-04 19:33:00,
2013-03-04 14:35:00,61.1,40.0,30.17,WSW,253,2.5,3.1,47,0.00,,,0.00,TxWx,2013-03-04 19:35:00,
2013-03-04 14:38:00,60.4,36.0,30.17,NNW,343,6.2,8.0,41,0.00,,,0.00,TxWx,2013-03-04 19:38:00,
2013-03-04 14:39:00,60.8,38.0,30.17,WNW,298,3.1,4.3,43,0.00,,,0.00,TxWx,2013-03-04 19:39:00,
2013-03-04 14:42:00,61.3,40.0,30.17,NNW,343,5.0,5.0,46,0.00,,,0.00,TxWx,2013-03-04 19:42:00,
2013-03-04 14:45:00,61.1,39.0,30.17,West,276,1.9,2.5,44,0.00,,,0.00,TxWx,2013-03-04 19:45:00,
2013-03-04 14:47:00,61.1,39.0,30.17,NE,51,7.4,7.4,44,0.00,,,0.00,TxWx,2013-03-04 19:47:00,
2013-03-04 14:48:00,61.0,38.0,30.18,NNW,343,7.4,9.3,43,0.00,,,0.00,TxWx,2013-03-04 19:48:00,
2013-03-04 14:51:00,61.2,39.0,30.17,WNW,298,4.3,5.0,45,0.00,,,0.00,TxWx,2013-03-04 19:51:00,
2013-03-04 14:52:00,61.3,40.0,30.17,NE,51,6.8,6.8,46,0.00,,,0.00,TxWx,2013-03-04 19:52:00,
2013-03-04 14:54:00,61.1,39.0,30.17,NNE,28,8.7,8.7,45,0.00,,,0.00,TxWx,2013-03-04 19:54:00,
2013-03-04 14:56:00,61.3,41.0,30.16,NNE,28,6.8,6.8,47,0.00,,,0.00,TxWx,2013-03-04 19:56:00,
2013-03-04 14:58:00,61.2,37.0,30.16,North,6,5.6,6.8,42,0.00,,,0.00,TxWx,2013-03-04 19:58:00,
2013-03-04 14:59:00,61.2,36.0,30.17,ENE,73,8.7,8.7,40,0.00,,,0.00,TxWx,2013-03-04 19:59:00,
2013-03-04 15:02:00,61.0,37.0,30.16,NNW,343,6.2,9.3,41,0.00,,,0.00,TxWx,2013-03-04 20:02:00,
2013-03-04 15:04:00,61.3,37.0,30.17,NE,51,6.2,6.2,41,0.00,,,0.00,TxWx,2013-03-04 20:04:00,
2013-03-04 15:07:00,61.3,39.0,30.17,East,96,5.6,5.6,45,0.00,,,0.00,TxWx,2013-03-04 20:07:00,
2013-03-04 15:10:00,61.3,40.0,30.17,East,96,8.7,8.7,46,0.00,,,0.00,TxWx,2013-03-04 20:10:00,
2013-03-04 15:12:00,61.3,40.0,30.17,ENE,73,9.9,9.9,47,0.00,,,0.00,TxWx,2013-03-04 20:12:00,
2013-03-04 15:15:00,61.2,38.0,30.17,NNE,28,3.7,4.3,42,0.00,,,0.00,TxWx,2013-03-04 20:15:00,
2013-03-04 15:18:00,61.5,40.0,30.17,NNE,28,6.8,6.8,44,0.00,,,0.00,TxWx,2013-03-04 20:18:00,
2013-03-04 15:20:00,61.6,40.0,30.17,NNW,343,6.8,8.0,45,0.00,,,0.00,TxWx,2013-03-04 20:20:00,
2013-03-04 15:22:00,61.5,38.0,30.17,NE,51,5.6,5.6,43,0.00,,,0.00,TxWx,2013-03-04 20:22:00,
2013-03-04 15:23:00,61.2,37.0,30.17,NE,51,6.8,7.4,42,0.00,,,0.00,TxWx,2013-03-04 20:23:00,
2013-03-04 15:27:00,61.3,38.0,30.17,ENE,73,3.1,3.7,42,0.00,,,0.00,TxWx,2013-03-04 20:27:00,
2013-03-04 15:28:00,61.5,39.0,30.17,North,6,3.1,4.3,44,0.00,,,0.00,TxWx,2013-03-04 20:28:00,
2013-03-04 15:31:00,61.3,38.0,30.17,NNW,343,7.4,8.0,43,0.00,,,0.00,TxWx,2013-03-04 20:31:00,
2013-03-04 15:33:00,61.5,40.0,30.17,NE,51,8.7,8.7,46,0.00,,,0.00,TxWx,2013-03-04 20:33:00,
2013-03-04 15:34:00,61.7,41.0,30.17,NE,51,8.7,8.7,46,0.00,,,0.00,TxWx,2013-03-04 20:34:00,
2013-03-04 15:37:00,61.7,39.0,30.17,NNE,28,3.1,3.1,43,0.00,,,0.00,TxWx,2013-03-04 20:37:00,
2013-03-04 15:38:00,61.8,39.0,30.17,North,6,3.1,3.1,43,0.00,,,0.00,TxWx,2013-03-04 20:38:00,
2013-03-04 15:39:00,61.6,39.0,30.17,North,6,5.6,6.8,44,0.00,,,0.00,TxWx,2013-03-04 20:39:00,
2013-03-04 15:44:00,61.5,38.0,30.17,NNE,28,5.6,5.6,41,0.00,,,0.00,TxWx,2013-03-04 20:44:00,
2013-03-04 15:45:00,61.4,37.0,30.17,NE,51,5.0,5.0,41,0.00,,,0.00,TxWx,2013-03-04 20:45:00,
2013-03-04 15:49:00,61.8,41.0,30.17,NW,321,3.7,3.7,46,0.00,,,0.00,TxWx,2013-03-04 20:49:00,
2013-03-04 15:50:00,61.7,40.0,30.17,NNE,28,4.3,4.3,45,0.00,,,0.00,TxWx,2013-03-04 20:50:00,
2013-03-04 15:51:00,61.8,41.0,30.17,NNW,343,3.1,3.1,46,0.00,,,0.00,TxWx,2013-03-04 20:51:00,
2013-03-04 15:55:00,61.6,39.0,30.17,NNW,343,6.2,7.4,43,0.00,,,0.00,TxWx,2013-03-04 20:55:00,
2013-03-04 15:57:00,61.5,38.0,30.17,ENE,73,5.6,6.8,41,0.00,,,0.00,TxWx,2013-03-04 20:57:00,
2013-03-04 15:58:00,61.4,36.0,30.17,North,6,5.0,5.6,40,0.00,,,0.00,TxWx,2013-03-04 20:58:00,
2013-03-04 16:01:00,61.7,39.0,30.17,NW,321,3.1,3.1,43,0.00,,,0.00,TxWx,2013-03-04 21:01:00,
2013-03-04 16:02:00,61.5,38.0,30.17,NE,51,3.7,3.7,43,0.00,,,0.00,TxWx,2013-03-04 21:02:00,
2013-03-04 16:03:00,61.3,37.0,30.17,NNE,28,9.9,9.9,41,0.00,,,0.00,TxWx,2013-03-04 21:03:00,
2013-03-04 16:04:00,61.2,36.0,30.17,NNW,343,4.3,5.6,40,0.00,,,0.00,TxWx,2013-03-04 21:04:00,
2013-03-04 16:07:00,61.4,35.0,30.17,East,96,2.5,3.7,38,0.00,,,0.00,TxWx,2013-03-04 21:07:00,
2013-03-04 16:08:00,61.7,37.0,30.17,NNW,343,3.7,3.7,39,0.00,,,0.00,TxWx,2013-03-04 21:08:00,
2013-03-04 16:09:00,61.8,37.0,30.17,WNW,298,3.7,3.7,40,0.00,,,0.00,TxWx,2013-03-04 21:09:00,
2013-03-04 16:14:00,61.7,38.0,30.17,North,6,6.2,6.2,42,0.00,,,0.00,TxWx,2013-03-04 21:14:00,
2013-03-04 16:15:00,61.7,38.0,30.17,NNE,28,3.7,3.7,42,0.00,,,0.00,TxWx,2013-03-04 21:15:00,
2013-03-04 16:16:00,61.7,38.0,30.17,NNE,28,3.7,5.0,41,0.00,,,0.00,TxWx,2013-03-04 21:16:00,
2013-03-04 16:20:00,61.5,36.0,30.17,NE,51,4.3,5.0,39,0.00,,,0.00,TxWx,2013-03-04 21:20:00,
2013-03-04 16:21:00,61.6,37.0,30.17,North,6,6.8,6.8,39,0.00,,,0.00,TxWx,2013-03-04 21:21:00,
2013-03-04 16:25:00,61.8,37.0,30.17,East,96,2.5,2.5,40,0.00,,,0.00,TxWx,2013-03-04 21:25:00,
2013-03-04 16:27:00,61.8,38.0,30.17,NE,51,5.6,5.6,41,0.00,,,0.00,TxWx,2013-03-04 21:27:00,
2013-03-04 16:28:00,61.6,37.0,30.17,NNE,28,7.4,7.4,39,0.00,,,0.00,TxWx,2013-03-04 21:28:00,
2013-03-04 16:30:00,61.6,36.0,30.17,NNW,343,6.8,8.0,38,0.00,,,0.00,TxWx,2013-03-04 21:30:00,
2013-03-04 16:32:00,61.7,35.0,30.18,South,186,3.7,4.3,37,0.00,,,0.00,TxWx,2013-03-04 21:32:00,
2013-03-04 16:33:00,61.6,33.0,30.17,NNE,28,5.0,5.0,34,0.00,,,0.00,TxWx,2013-03-04 21:33:00,
2013-03-04 16:38:00,62.0,35.0,30.17,NNE,28,4.3,4.3,37,0.00,,,0.00,TxWx,2013-03-04 21:38:00,
2013-03-04 16:40:00,61.7,36.0,30.17,North,6,5.0,6.8,39,0.00,,,0.00,TxWx,2013-03-04 21:40:00,
2013-03-04 16:43:00,61.6,38.0,30.17,NNE,28,6.8,7.4,41,0.00,,,0.00,TxWx,2013-03-04 21:43:00,
2013-03-04 16:46:00,61.9,38.0,30.17,NW,321,1.9,2.5,42,0.00,,,0.00,TxWx,2013-03-04 21:46:00,
2013-03-04 16:48:00,61.8,39.0,30.17,East,96,3.1,3.1,42,0.00,,,0.00,TxWx,2013-03-04 21:48:00,
2013-03-04 16:51:00,61.8,36.0,30.16,NNE,28,6.2,6.2,39,0.00,,,0.00,TxWx,2013-03-04 21:51:00,
2013-03-04 16:53:00,61.8,37.0,30.16,East,96,4.3,4.3,40,0.00,,,0.00,TxWx,2013-03-04 21:53:00,
2013-03-04 16:54:00,61.8,39.0,30.16,West,276,5.6,5.6,44,0.00,,,0.00,TxWx,2013-03-04 21:54:00,
2013-03-04 16:57:00,62.0,40.0,30.17,NE,51,3.1,3.1,45,0.00,,,0.00,TxWx,2013-03-04 21:57:00,
2013-03-04 16:59:00,61.8,38.0,30.16,NNE,28,5.0,5.6,41,0.00,,,0.00,TxWx,2013-03-04 21:59:00,
2013-03-04 17:00:00,62.0,38.0,30.16,NNE,28,2.5,3.1,42,0.00,,,0.00,TxWx,2013-03-04 22:00:00,
2013-03-04 17:02:00,62.0,37.0,30.17,NW,321,5.6,6.8,40,0.00,,,0.00,TxWx,2013-03-04 22:02:00,
2013-03-04 17:05:00,61.8,35.0,30.18,NNE,28,7.4,9.9,36,0.00,,,0.00,TxWx,2013-03-04 22:05:00,
2013-03-04 17:06:00,61.9,33.0,30.18,ENE,73,3.1,3.1,34,0.00,,,0.00,TxWx,2013-03-04 22:06:00,
2013-03-04 17:08:00,61.9,32.0,30.16,NNE,28,5.6,5.6,33,0.00,,,0.00,TxWx,2013-03-04 22:08:00,
2013-03-04 17:10:00,62.1,34.0,30.16,NNE,28,5.0,5.0,35,0.00,,,0.00,TxWx,2013-03-04 22:10:00,
2013-03-04 17:11:00,62.0,35.0,30.16,NNE,28,4.3,5.0,37,0.00,,,0.00,TxWx,2013-03-04 22:11:00,
2013-03-04 17:13:00,62.0,36.0,30.16,North,6,5.0,5.0,38,0.00,,,0.00,TxWx,2013-03-04 22:13:00,
2013-03-04 17:15:00,62.0,33.0,30.16,NNE,28,6.2,6.8,33,0.00,,,0.00,TxWx,2013-03-04 22:15:00,
2013-03-04 17:19:00,62.0,36.0,30.16,NNE,28,6.8,6.8,38,0.00,,,0.00,TxWx,2013-03-04 22:19:00,
2013-03-04 17:21:00,62.0,35.0,30.16,NE,51,2.5,2.5,36,0.00,,,0.00,TxWx,2013-03-04 22:21:00,
2013-03-04 17:24:00,61.8,34.0,30.16,NE,51,6.2,6.8,36,0.00,,,0.00,TxWx,2013-03-04 22:24:00,
2013-03-04 17:25:00,62.0,30.0,30.16,West,276,2.5,3.1,31,0.00,,,0.00,TxWx,2013-03-04 22:25:00,
2013-03-04 17:26:00,62.0,30.0,30.16,NE,51,5.0,5.0,31,0.00,,,0.00,TxWx,2013-03-04 22:26:00,
2013-03-04 17:29:00,61.9,36.0,30.16,SSW,208,2.5,3.7,39,0.00,,,0.00,TxWx,2013-03-04 22:29:00,
2013-03-04 17:31:00,62.0,36.0,30.16,NNW,343,6.2,6.2,38,0.00,,,0.00,TxWx,2013-03-04 22:31:00,
2013-03-04 17:32:00,61.8,33.0,30.16,North,6,5.6,7.4,34,0.00,,,0.00,TxWx,2013-03-04 22:32:00,
2013-03-04 17:35:00,61.8,34.0,30.16,NNE,28,6.2,7.4,36,0.00,,,0.00,TxWx,2013-03-04 22:35:00,
2013-03-04 17:37:00,61.7,30.0,30.17,WNW,298,6.2,7.4,32,0.00,,,0.00,TxWx,2013-03-04 22:37:00,
2013-03-04 17:38:00,61.6,32.0,30.17,NE,51,3.7,3.7,33,0.00,,,0.00,TxWx,2013-03-04 22:38:00,
2013-03-04 17:41:00,61.7,37.0,30.16,NW,321,2.5,3.1,39,0.00,,,0.00,TxWx,2013-03-04 22:41:00,
2013-03-04 17:43:00,61.5,37.0,30.16,NW,321,4.3,5.6,41,0.00,,,0.00,TxWx,2013-03-04 22:43:00,
2013-03-04 17:45:00,61.5,38.0,30.17,East,96,5.0,5.0,41,0.00,,,0.00,TxWx,2013-03-04 22:45:00,
2013-03-04 17:46:00,61.5,38.0,30.17,WSW,253,5.0,6.8,42,0.00,,,0.00,TxWx,2013-03-04 22:46:00,
2013-03-04 17:49:00,61.3,38.0,30.17,NNE,28,6.2,6.2,42,0.00,,,0.00,TxWx,2013-03-04 22:49:00,
2013-03-04 17:50:00,61.5,38.0,30.17,NNE,28,4.3,4.3,43,0.00,,,0.00,TxWx,2013-03-04 22:50:00,
2013-03-04 17:52:00,61.4,38.0,30.17,NE,51,3.1,3.7,42,0.00,,,0.00,TxWx,2013-03-04 22:52:00,
2013-03-04 17:53:00,61.5,38.0,30.17,NNE,28,1.9,2.5,43,0.00,,,0.00,TxWx,2013-03-04 22:53:00,
2013-03-04 17:55:00,61.3,40.0,30.17,West,276,3.7,3.7,46,0.00,,,0.00,TxWx,2013-03-04 22:55:00,
2013-03-04 17:57:00,61.3,38.0,30.17,WSW,253,1.2,1.9,42,0.00,,,0.00,TxWx,2013-03-04 22:57:00,
2013-03-04 17:59:00,61.3,39.0,30.17,NE,51,9.9,12.4,45,0.00,,,0.00,TxWx,2013-03-04 22:59:00,
2013-03-04 18:00:00,61.1,38.0,30.17,NNW,343,2.5,3.1,43,0.00,,,0.00,TxWx,2013-03-04 23:00:00,
2013-03-04 18:04:00,61.1,41.0,30.17,West,276,4.3,4.3,47,0.00,,,0.00,TxWx,2013-03-04 23:04:00,
2013-03-04 18:05:00,61.1,42.0,30.17,WNW,298,5.6,5.6,49,0.00,,,0.00,TxWx,2013-03-04 23:05:00,
2013-03-04 18:06:00,61.1,43.0,30.17,NW,321,3.1,3.1,51,0.00,,,0.00,TxWx,2013-03-04 23:06:00,
2013-03-04 18:10:00,60.8,41.0,30.17,NE,51,7.4,7.4,48,0.00,,,0.00,TxWx,2013-03-04 23:10:00,
2013-03-04 18:11:00,60.8,41.0,30.17,North,6,5.0,5.6,48,0.00,,,0.00,TxWx,2013-03-04 23:11:00,
2013-03-04 18:16:00,60.6,41.0,30.17,ENE,73,2.5,3.7,47,0.00,,,0.00,TxWx,2013-03-04 23:16:00,
2013-03-04 18:18:00,60.5,41.0,30.17,NNW,343,1.9,2.5,48,0.00,,,0.00,TxWx,2013-03-04 23:18:00,
2013-03-04 18:23:00,60.3,41.0,30.17,East,96,1.2,1.2,49,0.00,,,0.00,TxWx,2013-03-04 23:23:00,
2013-03-04 18:24:00,60.3,41.0,30.17,ESE,118,1.9,1.9,50,0.00,,,0.00,TxWx,2013-03-04 23:24:00,
2013-03-04 18:28:00,60.3,44.0,30.17,NW,321,5.0,5.0,55,0.00,,,0.00,TxWx,2013-03-04 23:28:00,
2013-03-04 18:29:00,60.2,43.0,30.17,North,6,3.7,5.0,54,0.00,,,0.00,TxWx,2013-03-04 23:29:00,
2013-03-04 18:33:00,60.1,43.0,30.17,North,6,4.3,4.3,53,0.00,,,0.00,TxWx,2013-03-04 23:33:00,
2013-03-04 18:34:00,60.1,43.0,30.17,WNW,298,2.5,2.5,53,0.00,,,0.00,TxWx,2013-03-04 23:34:00,
2013-03-04 18:38:00,60.0,43.0,30.17,North,6,3.1,3.7,53,0.00,,,0.00,TxWx,2013-03-04 23:38:00,
2013-03-04 18:39:00,59.9,42.0,30.17,NNW,343,3.7,3.7,52,0.00,,,0.00,TxWx,2013-03-04 23:39:00,
2013-03-04 18:44:00,59.8,43.0,30.17,NE,51,3.1,3.1,53,0.00,,,0.00,TxWx,2013-03-04 23:44:00,
2013-03-04 18:45:00,59.7,43.0,30.17,NNE,28,3.7,5.0,53,0.00,,,0.00,TxWx,2013-03-04 23:45:00,
2013-03-04 18:49:00,59.7,43.0,30.17,NW,321,5.6,6.2,54,0.00,,,0.00,TxWx,2013-03-04 23:49:00,
2013-03-04 18:51:00,59.6,44.0,30.17,WNW,298,2.5,3.1,55,0.00,,,0.00,TxWx,2013-03-04 23:51:00,
2013-03-04 18:52:00,59.6,44.0,30.17,NNE,28,5.0,5.0,55,0.00,,,0.00,TxWx,2013-03-04 23:52:00,
2013-03-04 18:55:00,59.6,43.0,30.17,NW,321,5.6,5.6,54,0.00,,,0.00,TxWx,2013-03-04 23:55:00,
2013-03-04 18:57:00,59.5,42.0,30.17,North,6,4.3,4.3,54,0.00,,,0.00,TxWx,2013-03-04 23:57:00,
2013-03-04 18:59:00,59.5,42.0,30.17,NNW,343,3.7,5.0,54,0.00,,,0.00,TxWx,2013-03-04 23:59:00,
2013-03-04 19:01:00,59.5,43.0,30.17,NNW,343,3.1,5.0,55,0.00,,,0.00,TxWx,2013-03-05 00:01:00,
2013-03-04 19:04:00,59.4,43.0,30.17,North,6,5.6,5.6,56,0.00,,,0.00,TxWx,2013-03-05 00:04:00,
2013-03-04 19:07:00,59.3,43.0,30.17,NE,51,4.3,5.6,56,0.00,,,0.00,TxWx,2013-03-05 00:07:00,
2013-03-04 19:08:00,59.3,43.0,30.17,North,6,3.7,5.0,56,0.00,,,0.00,TxWx,2013-03-05 00:08:00,
2013-03-04 19:10:00,59.3,43.0,30.17,NNE,28,6.2,6.2,55,0.00,,,0.00,TxWx,2013-03-05 00:10:00,
2013-03-04 19:13:00,59.3,43.0,30.17,NNW,343,6.2,6.8,55,0.00,,,0.00,TxWx,2013-03-05 00:13:00,
2013-03-04 19:17:00,59.4,43.0,30.17,NNE,28,1.9,2.5,55,0.00,,,0.00,TxWx,2013-03-05 00:17:00,
2013-03-04 19:18:00,59.3,43.0,30.17,WNW,298,3.7,3.7,55,0.00,,,0.00,TxWx,2013-03-05 00:18:00,
2013-03-04 19:20:00,59.4,43.0,30.17,North,6,2.5,2.5,55,0.00,,,0.00,TxWx,2013-03-05 00:20:00,
2013-03-04 19:22:00,59.6,44.0,30.18,NNE,28,4.3,4.3,55,0.00,,,0.00,TxWx,2013-03-05 00:22:00,
2013-03-04 19:25:00,59.6,44.0,30.18,NNW,343,3.1,3.7,55,0.00,,,0.00,TxWx,2013-03-05 00:25:00,
2013-03-04 19:28:00,59.6,44.0,30.18,NNW,343,2.5,3.1,55,0.00,,,0.00,TxWx,2013-03-05 00:28:00,
2013-03-04 19:30:00,59.6,44.0,30.18,NNW,343,4.3,4.3,55,0.00,,,0.00,TxWx,2013-03-05 00:30:00,
2013-03-04 19:31:00,59.6,44.0,30.18,NNE,28,3.7,3.7,55,0.00,,,0.00,TxWx,2013-03-05 00:31:00,
2013-03-04 19:34:00,59.7,44.0,30.18,NW,321,3.7,3.7,55,0.00,,,0.00,TxWx,2013-03-05 00:34:00,
2013-03-04 19:35:00,59.7,44.0,30.18,NW,321,1.9,1.9,55,0.00,,,0.00,TxWx,2013-03-05 00:35:00,
2013-03-04 19:38:00,59.7,44.0,30.18,North,6,3.7,4.3,56,0.00,,,0.00,TxWx,2013-03-05 00:38:00,
2013-03-04 19:39:00,59.7,44.0,30.18,North,6,3.7,3.7,56,0.00,,,0.00,TxWx,2013-03-05 00:39:00,
2013-03-04 19:41:00,59.7,44.0,30.18,NNW,343,2.5,3.1,57,0.00,,,0.00,TxWx,2013-03-05 00:41:00,
2013-03-04 19:44:00,59.8,44.0,30.18,NW,321,3.1,3.1,57,0.00,,,0.00,TxWx,2013-03-05 00:44:00,
2013-03-04 19:45:00,59.8,45.0,30.18,West,276,1.9,2.5,57,0.00,,,0.00,TxWx,2013-03-05 00:45:00,
2013-03-04 19:49:00,59.8,45.0,30.18,NNW,343,4.3,5.0,58,0.00,,,0.00,TxWx,2013-03-05 00:49:00,
2013-03-04 19:52:00,59.8,46.0,30.18,NNE,28,1.2,1.9,59,0.00,,,0.00,TxWx,2013-03-05 00:52:00,
2013-03-04 19:55:00,59.9,46.0,30.18,NW,321,1.9,1.9,59,0.00,,,0.00,TxWx,2013-03-05 00:55:00,
2013-03-04 19:56:00,59.8,46.0,30.18,NNW,343,1.9,1.9,59,0.00,,,0.00,TxWx,2013-03-05 00:56:00,
2013-03-04 19:57:00,59.9,46.0,30.18,NNW,343,2.5,2.5,60,0.00,,,0.00,TxWx,2013-03-05 00:57:00,
2013-03-04 20:00:00,59.9,45.0,30.18,North,6,2.5,2.5,58,0.00,,,0.00,TxWx,2013-03-05 01:00:00,
2013-03-04 20:01:00,59.8,45.0,30.18,North,6,3.1,3.1,59,0.00,,,0.00,TxWx,2013-03-05 01:01:00,
2013-03-04 20:02:00,59.8,46.0,30.18,NNW,343,2.5,3.1,59,0.00,,,0.00,TxWx,2013-03-05 01:02:00,
2013-03-04 20:03:00,59.8,46.0,30.18,NW,321,2.5,2.5,60,0.00,,,0.00,TxWx,2013-03-05 01:03:00,
2013-03-04 20:07:00,59.8,46.0,30.18,NW,321,3.1,3.1,60,0.00,,,0.00,TxWx,2013-03-05 01:07:00,
2013-03-04 20:08:00,59.8,46.0,30.19,WNW,298,1.9,1.9,61,0.00,,,0.00,TxWx,2013-03-05 01:08:00,
2013-03-04 20:10:00,59.8,46.0,30.19,WNW,298,1.2,1.2,61,0.00,,,0.00,TxWx,2013-03-05 01:10:00,
2013-03-04 20:13:00,59.5,46.0,30.19,NNW,343,2.5,2.5,61,0.00,,,0.00,TxWx,2013-03-05 01:13:00,
2013-03-04 20:14:00,59.5,46.0,30.19,NW,321,1.9,1.9,62,0.00,,,0.00,TxWx,2013-03-05 01:14:00,
2013-03-04 20:15:00,59.5,46.0,30.19,NW,321,1.2,1.9,62,0.00,,,0.00,TxWx,2013-03-05 01:15:00,
2013-03-04 20:18:00,59.3,46.0,30.19,WNW,298,2.5,3.1,63,0.00,,,0.00,TxWx,2013-03-05 01:18:00,
2013-03-04 20:21:00,59.1,46.0,30.19,WNW,298,1.9,1.9,62,0.00,,,0.00,TxWx,2013-03-05 01:21:00,
2013-03-04 20:24:00,58.8,46.0,30.19,North,6,3.1,3.1,62,0.00,,,0.00,TxWx,2013-03-05 01:24:00,
2013-03-04 20:26:00,58.7,46.0,30.19,WNW,298,1.2,1.9,63,0.00,,,0.00,TxWx,2013-03-05 01:26:00,
2013-03-04 20:30:00,58.5,46.0,30.19,WNW,298,1.9,1.9,63,0.00,,,0.00,TxWx,2013-03-05 01:30:00,
2013-03-04 20:31:00,58.5,45.0,30.19,WNW,298,1.2,1.2,63,0.00,,,0.00,TxWx,2013-03-05 01:31:00,
2013-03-04 20:32:00,58.4,45.0,30.19,WNW,298,1.2,1.2,63,0.00,,,0.00,TxWx,2013-03-05 01:32:00,
2013-03-04 20:36:00,58.3,45.0,30.19,NW,321,2.5,2.5,63,0.00,,,0.00,TxWx,2013-03-05 01:36:00,
2013-03-04 20:38:00,58.2,45.0,30.19,WNW,298,2.5,2.5,63,0.00,,,0.00,TxWx,2013-03-05 01:38:00,
2013-03-04 20:43:00,58.1,46.0,30.20,WNW,298,2.5,2.5,64,0.00,,,0.00,TxWx,2013-03-05 01:43:00,
2013-03-04 20:44:00,58.0,45.0,30.20,WNW,298,1.9,1.9,63,0.00,,,0.00,TxWx,2013-03-05 01:44:00,
2013-03-04 20:48:00,58.0,46.0,30.19,NW,321,2.5,3.1,64,0.00,,,0.00,TxWx,2013-03-05 01:48:00,
2013-03-04 20:49:00,58.0,46.0,30.19,NW,321,2.5,2.5,64,0.00,,,0.00,TxWx,2013-03-05 01:49:00,
2013-03-04 20:54:00,57.7,46.0,30.19,NW,321,1.9,2.5,65,0.00,,,0.00,TxWx,2013-03-05 01:54:00,
2013-03-04 20:55:00,57.7,46.0,30.19,NW,321,2.5,2.5,66,0.00,,,0.00,TxWx,2013-03-05 01:55:00,
2013-03-04 20:59:00,57.6,46.0,30.19,WNW,298,2.5,2.5,65,0.00,,,0.00,TxWx,2013-03-05 01:59:00,
2013-03-04 21:00:00,57.6,46.0,30.19,NW,321,3.7,3.7,65,0.00,,,0.00,TxWx,2013-03-05 02:00:00,
2013-03-04 21:01:00,57.7,46.0,30.19,WNW,298,1.9,1.9,66,0.00,,,0.00,TxWx,2013-03-05 02:01:00,
2013-03-04 21:05:00,57.7,46.0,30.19,NNW,343,3.1,3.1,65,0.00,,,0.00,TxWx,2013-03-05 02:05:00,
2013-03-04 21:06:00,57.7,46.0,30.19,NW,321,1.9,1.9,65,0.00,,,0.00,TxWx,2013-03-05 02:06:00,
2013-03-04 21:07:00,57.7,46.0,30.20,WNW,298,1.9,1.9,66,0.00,,,0.00,TxWx,2013-03-05 02:07:00,
2013-03-04 21:09:00,57.6,46.0,30.19,NW,321,1.9,2.5,66,0.00,,,0.00,TxWx,2013-03-05 02:09:00,
2013-03-04 21:11:00,57.6,46.0,30.19,NW,321,3.7,3.7,66,0.00,,,0.00,TxWx,2013-03-05 02:11:00,
2013-03-04 21:16:00,57.6,46.0,30.20,NW,321,3.1,3.1,66,0.00,,,0.00,TxWx,2013-03-05 02:16:00,
2013-03-04 21:17:00,57.6,46.0,30.20,WNW,298,1.9,1.9,66,0.00,,,0.00,TxWx,2013-03-05 02:17:00,
2013-03-04 21:22:00,57.6,47.0,30.20,NW,321,2.5,2.5,67,0.00,,,0.00,TxWx,2013-03-05 02:22:00,
2013-03-04 21:23:00,57.6,47.0,30.20,NW,321,2.5,2.5,67,0.00,,,0.00,TxWx,2013-03-05 02:23:00,
2013-03-04 21:27:00,57.6,47.0,30.20,NW,321,2.5,2.5,67,0.00,,,0.00,TxWx,2013-03-05 02:27:00,
2013-03-04 21:28:00,57.6,47.0,30.20,NW,321,1.9,2.5,67,0.00,,,0.00,TxWx,2013-03-05 02:28:00,
2013-03-04 21:33:00,57.5,47.0,30.20,WNW,298,3.1,3.1,67,0.00,,,0.00,TxWx,2013-03-05 02:33:00,
2013-03-04 21:34:00,57.4,46.0,30.20,WNW,298,1.9,1.9,66,0.00,,,0.00,TxWx,2013-03-05 02:34:00,
2013-03-04 21:38:00,57.3,46.0,30.20,WNW,298,2.5,2.5,67,0.00,,,0.00,TxWx,2013-03-05 02:38:00,
2013-03-04 21:39:00,57.1,46.0,30.20,West,276,3.1,3.1,67,0.00,,,0.00,TxWx,2013-03-05 02:39:00,
2013-03-04 21:40:00,57.1,46.0,30.20,WNW,298,2.5,3.1,67,0.00,,,0.00,TxWx,2013-03-05 02:40:00,
2013-03-04 21:44:00,56.8,46.0,30.20,WNW,298,2.5,2.5,67,0.00,,,0.00,TxWx,2013-03-05 02:44:00,
2013-03-04 21:45:00,56.7,46.0,30.19,WNW,298,1.9,3.1,67,0.00,,,0.00,TxWx,2013-03-05 02:45:00,
2013-03-04 21:46:00,56.7,46.0,30.20,WNW,298,3.1,3.1,67,0.00,,,0.00,TxWx,2013-03-05 02:46:00,
2013-03-04 21:50:00,56.5,46.0,30.19,WNW,298,2.5,2.5,67,0.00,,,0.00,TxWx,2013-03-05 02:50:00,
2013-03-04 21:51:00,56.4,45.0,30.20,WNW,298,2.5,2.5,67,0.00,,,0.00,TxWx,2013-03-05 02:51:00,
2013-03-04 21:52:00,56.4,45.0,30.19,NW,321,2.5,3.1,66,0.00,,,0.00,TxWx,2013-03-05 02:52:00,
2013-03-04 21:55:00,56.3,45.0,30.20,WNW,298,3.1,3.1,67,0.00,,,0.00,TxWx,2013-03-05 02:55:00,
2013-03-04 21:57:00,56.3,45.0,30.20,WNW,298,2.5,2.5,67,0.00,,,0.00,TxWx,2013-03-05 02:57:00,
2013-03-04 21:58:00,56.2,45.0,30.20,West,276,1.9,3.1,67,0.00,,,0.00,TxWx,2013-03-05 02:58:00,
2013-03-04 22:02:00,56.1,45.0,30.20,WNW,298,3.1,3.1,67,0.00,,,0.00,TxWx,2013-03-05 03:02:00,
2013-03-04 22:03:00,56.1,45.0,30.20,NW,321,2.5,2.5,67,0.00,,,0.00,TxWx,2013-03-05 03:03:00,
2013-03-04 22:04:00,56.1,45.0,30.19,WNW,298,2.5,3.1,68,0.00,,,0.00,TxWx,2013-03-05 03:04:00,
2013-03-04 22:07:00,56.1,45.0,30.19,NW,321,2.5,2.5,68,0.00,,,0.00,TxWx,2013-03-05 03:07:00,
2013-03-04 22:09:00,56.1,45.0,30.19,West,276,1.9,2.5,68,0.00,,,0.00,TxWx,2013-03-05 03:09:00,
2013-03-04 22:11:00,56.1,46.0,30.19,West,276,2.5,2.5,68,0.00,,,0.00,TxWx,2013-03-05 03:11:00,
2013-03-04 22:12:00,56.1,46.0,30.19,WNW,298,1.9,1.9,68,0.00,,,0.00,TxWx,2013-03-05 03:12:00,
2013-03-04 22:13:00,56.2,46.0,30.19,WNW,298,2.5,2.5,69,0.00,,,0.00,TxWx,2013-03-05 03:13:00,
2013-03-04 22:16:00,56.2,46.0,30.19,WNW,298,2.5,2.5,69,0.00,,,0.00,TxWx,2013-03-05 03:16:00,
2013-03-04 22:18:00,56.2,46.0,30.19,NW,321,3.1,3.1,69,0.00,,,0.00,TxWx,2013-03-05 03:18:00,
2013-03-04 22:19:00,56.2,46.0,30.19,WNW,298,2.5,3.1,69,0.00,,,0.00,TxWx,2013-03-05 03:19:00,
2013-03-04 22:22:00,56.3,46.0,30.20,WNW,298,2.5,2.5,69,0.00,,,0.00,TxWx,2013-03-05 03:22:00,
2013-03-04 22:23:00,56.1,46.0,30.19,West,276,2.5,2.5,69,0.00,,,0.00,TxWx,2013-03-05 03:23:00,
2013-03-04 22:25:00,56.1,46.0,30.19,WNW,298,3.1,3.1,68,0.00,,,0.00,TxWx,2013-03-05 03:25:00,
2013-03-04 22:27:00,55.9,45.0,30.20,WNW,298,3.1,3.7,67,0.00,,,0.00,TxWx,2013-03-05 03:27:00,
2013-03-04 22:28:00,56.1,46.0,30.20,West,276,3.1,3.1,68,0.00,,,0.00,TxWx,2013-03-05 03:28:00,
2013-03-04 22:29:00,56.1,46.0,30.20,West,276,3.7,3.7,69,0.00,,,0.00,TxWx,2013-03-05 03:29:00,
2013-03-04 22:30:00,56.0,46.0,30.20,WNW,298,3.1,3.7,69,0.00,,,0.00,TxWx,2013-03-05 03:30:00,
2013-03-04 22:33:00,55.7,46.0,30.20,WNW,298,2.5,3.1,68,0.00,,,0.00,TxWx,2013-03-05 03:33:00,
2013-03-04 22:35:00,55.7,46.0,30.20,WNW,298,2.5,2.5,68,0.00,,,0.00,TxWx,2013-03-05 03:35:00,
2013-03-04 22:36:00,55.6,46.0,30.20,WNW,298,2.5,2.5,69,0.00,,,0.00,TxWx,2013-03-05 03:36:00,
2013-03-04 22:40:00,55.6,46.0,30.20,WNW,298,2.5,3.1,69,0.00,,,0.00,TxWx,2013-03-05 03:40:00,
2013-03-04 22:41:00,55.5,46.0,30.20,West,276,2.5,2.5,69,0.00,,,0.00,TxWx,2013-03-05 03:41:00,
2013-03-04 22:42:00,55.5,46.0,30.20,WNW,298,2.5,3.1,69,0.00,,,0.00,TxWx,2013-03-05 03:42:00,
2013-03-04 22:46:00,55.5,46.0,30.20,WNW,298,3.1,3.7,70,0.00,,,0.00,TxWx,2013-03-05 03:46:00,
2013-03-04 22:47:00,55.5,46.0,30.20,WNW,298,3.1,3.7,70,0.00,,,0.00,TxWx,2013-03-05 03:47:00,
2013-03-04 22:52:00,55.4,45.0,30.19,WNW,298,3.1,3.1,70,0.00,,,0.00,TxWx,2013-03-05 03:52:00,
2013-03-04 22:54:00,55.3,45.0,30.19,WNW,298,3.1,3.1,70,0.00,,,0.00,TxWx,2013-03-05 03:54:00,
2013-03-04 22:58:00,55.1,45.0,30.19,West,276,3.1,3.7,70,0.00,,,0.00,TxWx,2013-03-05 03:58:00,
2013-03-04 22:59:00,55.1,46.0,30.19,WNW,298,2.5,2.5,71,0.00,,,0.00,TxWx,2013-03-05 03:59:00,
2013-03-04 23:00:00,55.1,46.0,30.19,West,276,3.1,3.1,71,0.00,,,0.00,TxWx,2013-03-05 04:00:00,
2013-03-04 23:04:00,55.0,46.0,30.19,WSW,253,5.0,5.6,71,0.00,,,0.00,TxWx,2013-03-05 04:04:00,
2013-03-04 23:05:00,55.0,46.0,30.19,WNW,298,4.3,5.0,72,0.00,,,0.00,TxWx,2013-03-05 04:05:00,
2013-03-04 23:06:00,54.8,46.0,30.19,West,276,4.3,5.0,71,0.00,,,0.00,TxWx,2013-03-05 04:06:00,
2013-03-04 23:10:00,54.7,46.0,30.19,WNW,298,3.7,3.7,72,0.00,,,0.00,TxWx,2013-03-05 04:10:00,
2013-03-04 23:11:00,54.7,46.0,30.19,West,276,3.1,3.1,72,0.00,,,0.00,TxWx,2013-03-05 04:11:00,
2013-03-04 23:12:00,54.7,46.0,30.19,WNW,298,3.1,3.7,72,0.00,,,0.00,TxWx,2013-03-05 04:12:00,
2013-03-04 23:16:00,54.7,46.0,30.19,WNW,298,2.5,2.5,72,0.00,,,0.00,TxWx,2013-03-05 04:16:00,
2013-03-04 23:17:00,54.6,46.0,30.19,WSW,253,1.9,2.5,72,0.00,,,0.00,TxWx,2013-03-05 04:17:00,
2013-03-04 23:18:00,54.7,46.0,30.19,WNW,298,2.5,2.5,72,0.00,,,0.00,TxWx,2013-03-05 04:18:00,
2013-03-04 23:22:00,54.5,46.0,30.19,WNW,298,3.1,3.1,72,0.00,,,0.00,TxWx,2013-03-05 04:22:00,
2013-03-04 23:25:00,54.5,46.0,30.20,WNW,298,2.5,2.5,72,0.00,,,0.00,TxWx,2013-03-05 04:25:00,
2013-03-04 23:27:00,54.5,46.0,30.19,NW,321,3.1,3.1,72,0.00,,,0.00,TxWx,2013-03-05 04:27:00,
2013-03-04 23:30:00,54.5,46.0,30.20,WNW,298,3.7,3.7,73,0.00,,,0.00,TxWx,2013-03-05 04:30:00,
2013-03-04 23:34:00,54.6,46.0,30.19,WNW,298,3.7,3.7,73,0.00,,,0.00,TxWx,2013-03-05 04:34:00,
2013-03-04 23:35:00,54.7,46.0,30.20,NW,321,2.5,2.5,73,0.00,,,0.00,TxWx,2013-03-05 04:35:00,
2013-03-04 23:39:00,54.4,45.0,30.20,WNW,298,3.1,3.7,73,0.00,,,0.00,TxWx,2013-03-05 04:39:00,
2013-03-04 23:40:00,54.4,45.0,30.19,WNW,298,3.1,3.1,73,0.00,,,0.00,TxWx,2013-03-05 04:40:00,
2013-03-04 23:42:00,54.5,46.0,30.19,NW,321,2.5,3.1,73,0.00,,,0.00,TxWx,2013-03-05 04:42:00,
2013-03-04 23:44:00,54.7,47.0,30.19,WNW,298,4.3,4.3,74,0.00,,,0.00,TxWx,2013-03-05 04:44:00,
2013-03-04 23:46:00,54.5,46.0,30.20,WNW,298,3.1,3.1,73,0.00,,,0.00,TxWx,2013-03-05 04:46:00,
2013-03-04 23:47:00,54.6,46.0,30.20,WNW,298,2.5,2.5,73,0.00,,,0.00,TxWx,2013-03-05 04:47:00,
2013-03-04 23:49:00,54.6,46.0,30.20,NW,321,3.1,3.1,73,0.00,,,0.00,TxWx,2013-03-05 04:49:00,
2013-03-04 23:52:00,54.6,46.0,30.20,WNW,298,2.5,2.5,73,0.00,,,0.00,TxWx,2013-03-05 04:52:00,
2013-03-04 23:54:00,54.6,46.0,30.19,WNW,298,2.5,2.5,73,0.00,,,0.00,TxWx,2013-03-05 04:54:00,
2013-03-04 23:58:00,54.6,46.0,30.19,WNW,298,3.1,3.1,73,0.00,,,0.00,TxWx,2013-03-05 04:58:00,
2013-03-04 23:59:00,54.6,46.0,30.19,WNW,298,3.1,3.1,73,0.00,,,0.00,TxWx,2013-03-05 04:59:00,